Time,TemperatureF,DewpointF,PressureIn,WindDirection,WindDirectionDegrees,WindSpeedMPH,WindSpeedGustMPH,Humidity,HourlyPrecipIn,Conditions,Clouds,dailyrainin,SoftwareType,DateUTC
2013-04-14 00:00:00,42.1,32.7,29.96,SW,223,0.0,0.0,69,0.00,,SCT,0.00,WeatherDisplay:10.37,2013-04-14 04:00:00,
2013-04-14 00:02:00,42.1,32.7,29.96,SW,223,0.0,0.0,69,0.00,,SCT,0.00,WeatherDisplay:10.37,2013-04-14 04:02:00,
2013-04-14 00:07:00,41.8,32.7,29.96,SW,223,0.0,0.0,70,0.00,,SCT,0.00,WeatherDisplay:10.37,2013-04-14 04:07:00,
2013-04-14 00:09:00,41.8,32.7,29.96,SW,223,0.0,0.0,70,0.00,,SCT,0.00,WeatherDisplay:10.37,2013-04-14 04:09:00,
2013-04-14 00:12:00,41.5,32.4,29.96,SW,223,0.0,0.0,70,0.00,,SCT,0.00,WeatherDisplay:10.37,2013-04-14 04:12:00,
2013-04-14 00:15:00,41.3,32.2,29.96,SW,223,0.0,0.0,70,0.00,,SCT,0.00,WeatherDisplay:10.37,2013-04-14 04:15:00,
2013-04-14 00:16:00,41.3,32.2,29.96,SW,223,0.0,0.0,70,0.00,,SCT,0.00,WeatherDisplay:10.37,2013-04-14 04:16:00,
2013-04-14 00:17:00,41.3,32.6,29.96,SW,223,0.0,0.0,71,0.00,,SCT,0.00,WeatherDisplay:10.37,2013-04-14 04:17:00,
2013-04-14 00:20:00,41.5,32.8,29.96,SW,223,0.0,0.0,71,0.00,,SCT,0.00,WeatherDisplay:10.37,2013-04-14 04:20:00,
2013-04-14 00:24:00,41.5,32.8,29.96,SW,223,0.0,0.0,71,0.00,,SCT,0.00,WeatherDisplay:10.37,2013-04-14 04:24:00,
2013-04-14 00:29:00,41.5,32.8,29.96,SW,223,0.0,0.0,71,0.00,,SCT,0.00,WeatherDisplay:10.37,2013-04-14 04:29:00,
2013-04-14 00:30:00,41.3,32.6,29.96,SW,223,0.0,0.0,71,0.00,,SCT,0.00,WeatherDisplay:10.37,2013-04-14 04:30:00,
2013-04-14 00:35:00,41.2,32.2,29.96,SW,223,0.0,0.0,70,0.00,,SCT,0.00,WeatherDisplay:10.37,2013-04-14 04:35:00,
2013-04-14 00:37:00,41.2,32.2,29.97,SW,223,0.0,0.0,70,0.00,,SCT,0.00,WeatherDisplay:10.37,2013-04-14 04:37:00,
2013-04-14 00:42:00,41.1,32.4,29.97,SW,223,0.0,0.0,71,0.00,,SCT,0.00,WeatherDisplay:10.37,2013-04-14 04:42:00,
2013-04-14 00:44:00,41.1,32.4,29.97,SW,223,0.0,0.0,71,0.00,,SCT,0.00,WeatherDisplay:10.37,2013-04-14 04:44:00,
2013-04-14 00:47:00,41.1,32.4,29.97,SW,223,0.0,0.0,71,0.00,,SCT,0.00,WeatherDisplay:10.37,2013-04-14 04:47:00,
2013-04-14 00:49:00,40.9,32.2,29.97,SW,223,0.0,0.0,71,0.00,,SCT,0.00,WeatherDisplay:10.37,2013-04-14 04:49:00,
2013-04-14 00:54:00,40.9,32.2,29.97,SW,223,0.0,0.0,71,0.00,,SCT,0.00,WeatherDisplay:10.37,2013-04-14 04:54:00,
2013-04-14 00:55:00,40.9,32.2,29.97,SW,223,0.0,0.0,71,0.00,,SCT,0.00,WeatherDisplay:10.37,2013-04-14 04:55:00,
2013-04-14 00:59:00,40.9,32.6,29.96,SW,223,0.0,0.0,72,0.00,,SCT,0.00,WeatherDisplay:10.37,2013-04-14 04:59:00,
2013-04-14 01:00:00,40.9,32.6,29.96,SW,223,0.0,0.0,72,0.00,,SCT,0.00,WeatherDisplay:10.37,2013-04-14 05:00:00,
2013-04-14 01:02:00,40.9,32.6,29.96,SW,223,0.0,0.0,72,0.00,,SCT,0.00,WeatherDisplay:10.37,2013-04-14 05:02:00,
2013-04-14 01:05:00,40.9,32.6,29.96,SW,223,0.0,0.0,72,0.00,,SCT,0.00,WeatherDisplay:10.37,2013-04-14 05:05:00,
2013-04-14 01:08:00,40.9,32.6,29.96,SW,223,0.0,0.0,72,0.00,,SCT,0.00,WeatherDisplay:10.37,2013-04-14 05:08:00,
2013-04-14 01:10:00,40.9,32.6,29.96,SW,223,0.0,0.0,72,0.00,,SCT,0.00,WeatherDisplay:10.37,2013-04-14 05:10:00,
2013-04-14 01:11:00,40.9,32.6,29.96,SW,223,0.0,0.0,72,0.00,,SCT,0.00,WeatherDisplay:10.37,2013-04-14 05:11:00,
2013-04-14 01:15:00,40.8,32.5,29.96,SW,223,0.0,0.0,72,0.00,,SCT,0.00,WeatherDisplay:10.37,2013-04-14 05:15:00,
2013-04-14 01:17:00,40.8,32.5,29.96,SW,223,0.0,0.0,72,0.00,,SCT,0.00,WeatherDisplay:10.37,2013-04-14 05:17:00,
2013-04-14 01:18:00,40.8,32.5,29.96,SW,223,0.0,0.0,72,0.00,,SCT,0.00,WeatherDisplay:10.37,2013-04-14 05:18:00,
2013-04-14 01:19:00,40.8,32.5,29.96,SW,223,0.0,0.0,72,0.00,,SCT,0.00,WeatherDisplay:10.37,2013-04-14 05:19:00,
2013-04-14 01:24:00,40.8,32.8,29.96,SW,223,0.0,0.0,73,0.00,,SCT,0.00,WeatherDisplay:10.37,2013-04-14 05:24:00,
2013-04-14 01:25:00,40.8,32.8,29.96,SW,223,0.0,0.0,73,0.00,,SCT,0.00,WeatherDisplay:10.37,2013-04-14 05:25:00,
2013-04-14 01:27:00,40.8,32.8,29.96,SW,223,0.0,0.0,73,0.00,,SCT,0.00,WeatherDisplay:10.37,2013-04-14 05:27:00,
2013-04-14 01:30:00,40.6,32.6,29.96,SW,223,0.0,0.0,73,0.00,,SCT,0.00,WeatherDisplay:10.37,2013-04-14 05:30:00,
2013-04-14 01:32:00,40.6,32.3,29.96,SW,223,0.0,0.0,72,0.00,,SCT,0.00,WeatherDisplay:10.37,2013-04-14 05:32:00,
2013-04-14 01:35:00,40.6,32.6,29.96,SW,223,0.0,0.0,73,0.00,,SCT,0.00,WeatherDisplay:10.37,2013-04-14 05:35:00,
2013-04-14 01:37:00,40.5,32.5,29.96,SW,223,0.0,0.0,73,0.00,,SCT,0.00,WeatherDisplay:10.37,2013-04-14 05:37:00,
2013-04-14 01:38:00,40.5,32.5,29.96,SW,223,0.0,0.0,73,0.00,,SCT,0.00,WeatherDisplay:10.37,2013-04-14 05:38:00,
2013-04-14 01:39:00,40.5,32.5,29.96,SW,223,0.0,0.0,73,0.00,,SCT,0.00,WeatherDisplay:10.37,2013-04-14 05:39:00,
2013-04-14 01:42:00,40.5,32.5,29.96,SW,223,0.0,0.0,73,0.00,,SCT,0.00,WeatherDisplay:10.37,2013-04-14 05:42:00,
2013-04-14 01:43:00,40.5,32.5,29.96,SW,223,0.0,0.0,73,0.00,,SCT,0.00,WeatherDisplay:10.37,2013-04-14 05:43:00,
2013-04-14 01:46:00,40.3,32.0,29.96,SW,223,0.0,0.0,72,0.00,,SCT,0.00,WeatherDisplay:10.37,2013-04-14 05:46:00,
2013-04-14 01:47:00,40.3,32.0,29.96,SW,223,0.0,0.0,72,0.00,,SCT,0.00,WeatherDisplay:10.37,2013-04-14 05:47:00,
2013-04-14 01:48:00,40.3,32.0,29.96,SW,223,0.0,0.0,72,0.00,,SCT,0.00,WeatherDisplay:10.37,2013-04-14 05:48:00,
2013-04-14 01:51:00,40.2,31.9,29.97,SW,223,0.0,0.0,72,0.00,,SCT,0.00,WeatherDisplay:10.37,2013-04-14 05:51:00,
2013-04-14 01:53:00,40.2,31.9,29.97,SW,223,0.0,0.0,72,0.00,,SCT,0.00,WeatherDisplay:10.37,2013-04-14 05:53:00,
2013-04-14 01:56:00,40.1,31.8,29.97,SW,223,0.0,0.0,72,0.00,,SCT,0.00,WeatherDisplay:10.37,2013-04-14 05:56:00,
2013-04-14 01:58:00,40.1,32.1,29.97,SW,223,0.0,0.0,73,0.00,,SCT,0.00,WeatherDisplay:10.37,2013-04-14 05:58:00,
2013-04-14 01:59:00,40.1,32.1,29.97,SW,223,0.0,0.0,73,0.00,,SCT,0.00,WeatherDisplay:10.37,2013-04-14 05:59:00,
2013-04-14 02:01:00,40.1,32.1,29.97,SW,223,0.0,0.0,73,0.00,,SCT,0.00,WeatherDisplay:10.37,2013-04-14 06:01:00,
2013-04-14 02:04:00,40.1,32.1,29.97,SW,223,0.0,0.0,73,0.00,,SCT,0.00,WeatherDisplay:10.37,2013-04-14 06:04:00,
2013-04-14 02:05:00,40.1,32.1,29.97,SW,223,0.0,0.0,73,0.00,,SCT,0.00,WeatherDisplay:10.37,2013-04-14 06:05:00,
2013-04-14 02:07:00,39.9,31.9,29.97,SW,223,0.0,0.0,73,0.00,,SCT,0.00,WeatherDisplay:10.37,2013-04-14 06:07:00,
2013-04-14 02:10:00,39.9,31.9,29.97,SW,223,0.0,0.0,73,0.00,,SCT,0.00,WeatherDisplay:10.37,2013-04-14 06:10:00,
2013-04-14 02:11:00,39.9,31.9,29.97,SW,223,0.0,0.0,73,0.00,,SCT,0.00,WeatherDisplay:10.37,2013-04-14 06:11:00,
2013-04-14 02:13:00,39.8,31.8,29.97,SW,223,0.0,0.0,73,0.00,,SCT,0.00,WeatherDisplay:10.37,2013-04-14 06:13:00,
2013-04-14 02:18:00,39.6,31.7,29.97,SW,223,0.0,0.0,73,0.00,,SCT,0.00,WeatherDisplay:10.37,2013-04-14 06:18:00,
2013-04-14 02:21:00,39.5,31.6,29.97,SW,223,0.0,0.0,73,0.00,,SCT,0.00,WeatherDisplay:10.37,2013-04-14 06:21:00,
2013-04-14 02:25:00,39.3,31.4,29.97,SW,223,0.0,0.0,73,0.00,,SCT,0.00,WeatherDisplay:10.37,2013-04-14 06:25:00,
2013-04-14 02:26:00,39.3,31.4,29.97,SW,223,0.0,0.0,73,0.00,,SCT,0.00,WeatherDisplay:10.37,2013-04-14 06:26:00,
2013-04-14 02:28:00,39.2,31.3,29.97,SW,223,0.0,0.0,73,0.00,,SCT,0.00,WeatherDisplay:10.37,2013-04-14 06:28:00,
2013-04-14 02:30:00,39.2,31.3,29.97,SW,223,0.0,0.0,73,0.00,,SCT,0.00,WeatherDisplay:10.37,2013-04-14 06:30:00,
2013-04-14 02:33:00,39.2,31.3,29.97,SW,223,0.0,0.0,73,0.00,,SCT,0.00,WeatherDisplay:10.37,2013-04-14 06:33:00,
2013-04-14 02:34:00,39.1,31.2,29.97,SW,223,0.0,0.0,73,0.00,,SCT,0.00,WeatherDisplay:10.37,2013-04-14 06:34:00,
2013-04-14 02:35:00,39.1,31.2,29.97,SW,223,0.0,0.0,73,0.00,,SCT,0.00,WeatherDisplay:10.37,2013-04-14 06:35:00,
2013-04-14 02:40:00,38.9,31.3,29.97,SW,223,0.0,0.0,74,0.00,,SCT,0.00,WeatherDisplay:10.37,2013-04-14 06:40:00,
2013-04-14 02:41:00,38.9,31.3,29.97,SW,223,0.0,0.0,74,0.00,,SCT,0.00,WeatherDisplay:10.37,2013-04-14 06:41:00,
2013-04-14 02:45:00,38.9,31.3,29.97,SW,223,0.0,0.0,74,0.00,,SCT,0.00,WeatherDisplay:10.37,2013-04-14 06:45:00,
2013-04-14 02:48:00,38.9,31.3,29.97,SW,223,0.0,0.0,74,0.00,,SCT,0.00,WeatherDisplay:10.37,2013-04-14 06:48:00,
2013-04-14 02:50:00,38.8,31.2,29.97,SW,223,0.0,0.0,74,0.00,,SCT,0.00,WeatherDisplay:10.37,2013-04-14 06:50:00,
2013-04-14 02:53:00,38.8,31.2,29.97,SW,223,0.0,0.0,74,0.00,,SCT,0.00,WeatherDisplay:10.37,2013-04-14 06:53:00,
2013-04-14 02:54:00,38.8,31.2,29.97,SW,223,0.0,0.0,74,0.00,,SCT,0.00,WeatherDisplay:10.37,2013-04-14 06:54:00,
2013-04-14 02:59:00,38.3,30.7,29.96,SW,223,0.0,0.0,74,0.00,,SCT,0.00,WeatherDisplay:10.37,2013-04-14 06:59:00,
2013-04-14 03:03:00,38.2,31.0,29.96,SW,223,0.0,0.0,75,0.00,,SCT,0.00,WeatherDisplay:10.37,2013-04-14 07:03:00,
2013-04-14 03:04:00,38.2,31.0,29.96,SW,223,0.0,0.0,75,0.00,,SCT,0.00,WeatherDisplay:10.37,2013-04-14 07:04:00,
2013-04-14 03:05:00,38.2,31.0,29.96,SW,223,0.0,0.0,75,0.00,,SCT,0.00,WeatherDisplay:10.37,2013-04-14 07:05:00,
2013-04-14 03:10:00,38.2,31.3,29.96,SW,223,0.0,0.0,76,0.00,,SCT,0.00,WeatherDisplay:10.37,2013-04-14 07:10:00,
2013-04-14 03:12:00,38.2,31.3,29.97,SW,223,0.0,0.0,76,0.00,,SCT,0.00,WeatherDisplay:10.37,2013-04-14 07:12:00,
2013-04-14 03:15:00,38.2,31.3,29.97,SW,223,0.0,0.0,76,0.00,,SCT,0.00,WeatherDisplay:10.37,2013-04-14 07:15:00,
2013-04-14 03:20:00,38.3,31.4,29.96,SW,223,0.0,0.0,76,0.00,,SCT,0.00,WeatherDisplay:10.37,2013-04-14 07:20:00,
2013-04-14 03:22:00,38.3,31.4,29.96,SW,223,0.0,0.0,76,0.00,,SCT,0.00,WeatherDisplay:10.37,2013-04-14 07:22:00,
2013-04-14 03:23:00,38.3,31.4,29.96,SW,223,0.0,0.0,76,0.00,,SCT,0.00,WeatherDisplay:10.37,2013-04-14 07:23:00,
2013-04-14 03:28:00,38.3,31.4,29.96,SW,223,0.0,0.0,76,0.00,,SCT,0.00,WeatherDisplay:10.37,2013-04-14 07:28:00,
2013-04-14 03:29:00,38.3,31.4,29.96,SW,223,0.0,0.0,76,0.00,,SCT,0.00,WeatherDisplay:10.37,2013-04-14 07:29:00,
2013-04-14 03:30:00,38.3,31.4,29.96,SW,223,0.0,0.0,76,0.00,,SCT,0.00,WeatherDisplay:10.37,2013-04-14 07:30:00,
2013-04-14 03:35:00,38.2,31.3,29.96,SW,223,0.0,0.0,76,0.00,,SCT,0.00,WeatherDisplay:10.37,2013-04-14 07:35:00,
2013-04-14 03:36:00,38.2,31.3,29.96,SW,223,0.0,0.0,76,0.00,,SCT,0.00,WeatherDisplay:10.37,2013-04-14 07:36:00,
2013-04-14 03:42:00,38.0,31.1,29.96,SW,223,0.0,0.0,76,0.00,,SCT,0.00,WeatherDisplay:10.37,2013-04-14 07:42:00,
2013-04-14 03:47:00,37.9,31.0,29.96,SW,223,0.0,0.0,76,0.00,,SCT,0.00,WeatherDisplay:10.37,2013-04-14 07:47:00,
2013-04-14 03:48:00,37.9,31.0,29.96,SW,223,0.0,0.0,76,0.00,,SCT,0.00,WeatherDisplay:10.37,2013-04-14 07:48:00,
2013-04-14 03:53:00,37.9,31.3,29.97,SW,223,0.0,0.0,77,0.00,,SCT,0.00,WeatherDisplay:10.37,2013-04-14 07:53:00,
2013-04-14 03:55:00,37.9,31.3,29.97,SW,223,0.0,0.0,77,0.00,,SCT,0.00,WeatherDisplay:10.37,2013-04-14 07:55:00,
2013-04-14 03:57:00,37.9,31.3,29.97,SW,223,0.0,0.0,77,0.00,,SCT,0.00,WeatherDisplay:10.37,2013-04-14 07:57:00,
2013-04-14 03:58:00,37.9,31.3,29.97,SW,223,0.0,0.0,77,0.00,,SCT,0.00,WeatherDisplay:10.37,2013-04-14 07:58:00,
2013-04-14 04:00:00,37.8,31.2,29.97,SW,223,0.0,0.0,77,0.00,,SCT,0.00,WeatherDisplay:10.37,2013-04-14 08:00:00,
2013-04-14 04:05:00,37.8,31.2,29.97,SW,223,0.0,0.0,77,0.00,,SCT,0.00,WeatherDisplay:10.37,2013-04-14 08:05:00,
2013-04-14 04:09:00,37.8,31.2,29.97,SW,223,0.0,0.0,77,0.00,,SCT,0.00,WeatherDisplay:10.37,2013-04-14 08:09:00,
2013-04-14 04:10:00,37.6,31.0,29.97,SW,223,0.0,0.0,77,0.00,,SCT,0.00,WeatherDisplay:10.37,2013-04-14 08:10:00,
2013-04-14 04:11:00,37.6,31.0,29.97,SW,223,0.0,0.0,77,0.00,,SCT,0.00,WeatherDisplay:10.37,2013-04-14 08:11:00,
2013-04-14 04:17:00,37.5,30.9,29.96,SW,223,0.0,0.0,77,0.00,,SCT,0.00,WeatherDisplay:10.37,2013-04-14 08:17:00,
2013-04-14 04:18:00,37.5,30.9,29.96,SW,223,0.0,0.0,77,0.00,,SCT,0.00,WeatherDisplay:10.37,2013-04-14 08:18:00,
2013-04-14 04:19:00,37.5,30.9,29.97,SW,223,0.0,0.0,77,0.00,,SCT,0.00,WeatherDisplay:10.37,2013-04-14 08:19:00,
2013-04-14 04:22:00,37.5,30.9,29.97,SW,223,0.0,0.0,77,0.00,,SCT,0.00,WeatherDisplay:10.37,2013-04-14 08:22:00,
2013-04-14 04:23:00,37.5,30.9,29.97,SW,223,0.0,0.0,77,0.00,,SCT,0.00,WeatherDisplay:10.37,2013-04-14 08:23:00,
2013-04-14 04:24:00,37.5,30.9,29.97,SW,223,0.0,0.0,77,0.00,,SCT,0.00,WeatherDisplay:10.37,2013-04-14 08:24:00,
2013-04-14 04:25:00,37.5,30.9,29.97,SW,223,0.0,0.0,77,0.00,,SCT,0.00,WeatherDisplay:10.37,2013-04-14 08:25:00,
2013-04-14 04:30:00,37.5,30.9,29.97,SW,223,0.0,0.0,77,0.00,,SCT,0.00,WeatherDisplay:10.37,2013-04-14 08:30:00,
2013-04-14 04:31:00,37.5,30.9,29.97,SW,223,0.0,0.0,77,0.00,,SCT,0.00,WeatherDisplay:10.37,2013-04-14 08:31:00,
2013-04-14 04:34:00,37.5,30.9,29.97,SW,223,0.0,0.0,77,0.00,,SCT,0.00,WeatherDisplay:10.37,2013-04-14 08:34:00,
2013-04-14 04:36:00,37.5,31.3,29.97,SW,223,0.0,0.0,78,0.00,,SCT,0.00,WeatherDisplay:10.37,2013-04-14 08:36:00,
2013-04-14 04:41:00,37.5,30.9,29.97,SW,223,0.0,0.0,77,0.00,,SCT,0.00,WeatherDisplay:10.37,2013-04-14 08:41:00,
2013-04-14 04:43:00,37.5,30.9,29.97,SW,223,0.0,0.0,77,0.00,,SCT,0.00,WeatherDisplay:10.37,2013-04-14 08:43:00,
2013-04-14 04:47:00,37.3,30.7,29.97,SW,223,0.0,0.0,77,0.00,,SCT,0.00,WeatherDisplay:10.37,2013-04-14 08:47:00,
2013-04-14 04:50:00,37.3,31.1,29.97,SW,223,0.0,0.0,78,0.00,,SCT,0.00,WeatherDisplay:10.37,2013-04-14 08:50:00,
2013-04-14 04:52:00,37.3,31.1,29.96,SW,223,0.0,0.0,78,0.00,,SCT,0.00,WeatherDisplay:10.37,2013-04-14 08:52:00,
2013-04-14 04:57:00,37.2,31.0,29.96,SW,223,0.0,0.0,78,0.00,,SCT,0.00,WeatherDisplay:10.37,2013-04-14 08:57:00,
2013-04-14 04:58:00,37.2,31.3,29.96,SW,223,0.0,0.0,79,0.00,,SCT,0.00,WeatherDisplay:10.37,2013-04-14 08:58:00,
2013-04-14 05:03:00,37.5,31.6,29.96,SW,223,0.0,0.0,79,0.00,,SCT,0.00,WeatherDisplay:10.37,2013-04-14 09:03:00,
2013-04-14 05:07:00,37.5,31.6,29.96,SW,223,0.0,0.0,79,0.00,,SCT,0.00,WeatherDisplay:10.37,2013-04-14 09:07:00,
2013-04-14 05:09:00,37.5,31.6,29.96,SW,223,0.0,0.0,79,0.00,,SCT,0.00,WeatherDisplay:10.37,2013-04-14 09:09:00,
2013-04-14 05:14:00,37.5,31.6,29.96,SW,223,0.0,0.0,79,0.00,,SCT,0.00,WeatherDisplay:10.37,2013-04-14 09:14:00,
2013-04-14 05:15:00,37.5,31.6,29.96,SW,223,0.0,0.0,79,0.00,,SCT,0.00,WeatherDisplay:10.37,2013-04-14 09:15:00,
2013-04-14 05:20:00,37.2,31.3,29.96,SW,223,0.0,0.0,79,0.00,,SCT,0.00,WeatherDisplay:10.37,2013-04-14 09:20:00,
2013-04-14 05:21:00,37.2,31.3,29.96,SW,223,0.0,0.0,79,0.00,,SCT,0.00,WeatherDisplay:10.37,2013-04-14 09:21:00,
2013-04-14 05:23:00,37.0,31.1,29.96,SW,223,0.0,0.0,79,0.00,,SCT,0.00,WeatherDisplay:10.37,2013-04-14 09:23:00,
2013-04-14 05:27:00,36.9,31.0,29.96,SW,223,0.0,0.0,79,0.00,,SCT,0.00,WeatherDisplay:10.37,2013-04-14 09:27:00,
2013-04-14 05:32:00,36.8,30.9,29.96,SW,223,0.0,0.0,79,0.00,,SCT,0.00,WeatherDisplay:10.37,2013-04-14 09:32:00,
2013-04-14 05:34:00,36.8,30.9,29.96,SW,223,0.0,0.0,79,0.00,,SCT,0.00,WeatherDisplay:10.37,2013-04-14 09:34:00,
2013-04-14 05:36:00,36.8,30.9,29.96,SW,223,0.0,0.0,79,0.00,,SCT,0.00,WeatherDisplay:10.37,2013-04-14 09:36:00,
2013-04-14 05:38:00,36.8,30.9,29.96,SW,223,0.0,0.0,79,0.00,,SCT,0.00,WeatherDisplay:10.37,2013-04-14 09:38:00,
2013-04-14 05:43:00,36.8,30.9,29.96,SW,223,0.0,0.0,79,0.00,,SCT,0.00,WeatherDisplay:10.37,2013-04-14 09:43:00,
2013-04-14 05:44:00,36.8,30.9,29.96,SW,223,0.0,0.0,79,0.00,,SCT,0.00,WeatherDisplay:10.37,2013-04-14 09:44:00,
2013-04-14 05:45:00,36.8,30.9,29.96,SW,223,0.0,0.0,79,0.00,,SCT,0.00,WeatherDisplay:10.37,2013-04-14 09:45:00,
2013-04-14 05:48:00,36.8,30.9,29.96,SW,223,0.0,0.0,79,0.00,,SCT,0.00,WeatherDisplay:10.37,2013-04-14 09:48:00,
2013-04-14 05:49:00,36.8,30.9,29.96,SW,223,0.0,0.0,79,0.00,,SCT,0.00,WeatherDisplay:10.37,2013-04-14 09:49:00,
2013-04-14 05:50:00,36.8,30.9,29.96,SW,223,0.0,0.0,79,0.00,,SCT,0.00,WeatherDisplay:10.37,2013-04-14 09:50:00,
2013-04-14 05:53:00,36.6,30.7,29.96,SW,223,0.0,0.0,79,0.00,,SCT,0.00,WeatherDisplay:10.37,2013-04-14 09:53:00,
2013-04-14 05:55:00,36.6,30.7,29.96,SW,223,0.0,0.0,79,0.00,,SCT,0.00,WeatherDisplay:10.37,2013-04-14 09:55:00,
2013-04-14 05:58:00,36.6,30.7,29.96,SW,223,0.0,0.0,79,0.00,,SCT,0.00,WeatherDisplay:10.37,2013-04-14 09:58:00,
2013-04-14 06:00:00,36.6,30.7,29.96,SW,223,0.0,0.0,79,0.00,,SCT,0.00,WeatherDisplay:10.37,2013-04-14 10:00:00,
2013-04-14 06:01:00,36.5,30.6,29.96,SW,223,0.0,0.0,79,0.00,,SCT,0.00,WeatherDisplay:10.37,2013-04-14 10:01:00,
2013-04-14 06:03:00,36.5,30.6,29.96,SW,223,0.0,0.0,79,0.00,,SCT,0.00,WeatherDisplay:10.37,2013-04-14 10:03:00,
2013-04-14 06:04:00,36.5,30.6,29.96,SW,223,0.0,0.0,79,0.00,,SCT,0.00,WeatherDisplay:10.37,2013-04-14 10:04:00,
2013-04-14 06:07:00,36.5,30.6,29.96,SW,223,0.0,0.0,79,0.00,,SCT,0.00,WeatherDisplay:10.37,2013-04-14 10:07:00,
2013-04-14 06:08:00,36.5,30.6,29.96,SW,223,0.0,0.0,79,0.00,,SCT,0.00,WeatherDisplay:10.37,2013-04-14 10:08:00,
2013-04-14 06:09:00,36.5,30.9,29.96,SW,223,0.0,0.0,80,0.00,,SCT,0.00,WeatherDisplay:10.37,2013-04-14 10:09:00,
2013-04-14 06:10:00,36.5,30.9,29.96,SW,223,0.0,0.0,80,0.00,,SCT,0.00,WeatherDisplay:10.37,2013-04-14 10:10:00,
2013-04-14 06:13:00,36.5,30.9,29.96,SW,223,0.0,0.0,80,0.00,,SCT,0.00,WeatherDisplay:10.37,2013-04-14 10:13:00,
2013-04-14 06:14:00,36.5,30.9,29.96,SW,223,0.0,0.0,80,0.00,,SCT,0.00,WeatherDisplay:10.37,2013-04-14 10:14:00,
2013-04-14 06:17:00,36.5,30.9,29.96,SW,223,0.0,0.0,80,0.00,,SCT,0.00,WeatherDisplay:10.37,2013-04-14 10:17:00,
2013-04-14 06:19:00,36.5,30.9,29.96,SW,223,0.0,0.0,80,0.00,,SCT,0.00,WeatherDisplay:10.37,2013-04-14 10:19:00,
2013-04-14 06:20:00,36.5,30.9,29.96,SW,223,0.0,0.0,80,0.00,,SCT,0.00,WeatherDisplay:10.37,2013-04-14 10:20:00,
2013-04-14 06:22:00,36.5,30.9,29.96,SW,223,0.0,0.0,80,0.00,,SCT,0.00,WeatherDisplay:10.37,2013-04-14 10:22:00,
2013-04-14 06:24:00,36.6,31.0,29.96,SW,223,0.0,0.0,80,0.00,,SCT,0.00,WeatherDisplay:10.37,2013-04-14 10:24:00,
2013-04-14 06:26:00,36.6,31.0,29.96,SW,223,0.0,0.0,80,0.00,,SCT,0.00,WeatherDisplay:10.37,2013-04-14 10:26:00,
2013-04-14 06:27:00,36.5,30.9,29.96,SW,223,0.0,0.0,80,0.00,,SCT,0.00,WeatherDisplay:10.37,2013-04-14 10:27:00,
2013-04-14 06:31:00,36.5,30.9,29.96,SW,223,0.0,0.0,80,0.00,CLR,SCT,0.00,WeatherDisplay:10.37,2013-04-14 10:31:00,
2013-04-14 06:33:00,36.3,30.7,29.96,SW,223,0.0,0.0,80,0.00,CLR,SCT,0.00,WeatherDisplay:10.37,2013-04-14 10:33:00,
2013-04-14 06:35:00,36.3,30.7,29.97,SW,223,0.0,0.0,80,0.00,CLR,SCT,0.00,WeatherDisplay:10.37,2013-04-14 10:35:00,
2013-04-14 06:37:00,36.3,30.7,29.97,SW,223,0.0,0.0,80,0.00,CLR,SCT,0.00,WeatherDisplay:10.37,2013-04-14 10:37:00,
2013-04-14 06:38:00,36.2,30.6,29.97,SW,223,0.0,0.0,80,0.00,CLR,SCT,0.00,WeatherDisplay:10.37,2013-04-14 10:38:00,
2013-04-14 06:42:00,36.2,30.6,29.97,SW,223,0.0,0.0,80,0.00,CLR,SCT,0.00,WeatherDisplay:10.37,2013-04-14 10:42:00,
2013-04-14 06:44:00,36.2,30.6,29.97,SW,223,0.0,0.0,80,0.00,CLR,SCT,0.00,WeatherDisplay:10.37,2013-04-14 10:44:00,
2013-04-14 06:45:00,36.0,30.4,29.97,SW,223,0.0,0.0,80,0.00,CLR,SCT,0.00,WeatherDisplay:10.37,2013-04-14 10:45:00,
2013-04-14 06:48:00,36.0,30.4,29.97,SW,219,0.0,0.0,80,0.00,CLR,SCT,0.00,WeatherDisplay:10.37,2013-04-14 10:48:00,
2013-04-14 06:49:00,36.0,30.4,29.97,SW,218,0.0,0.0,80,0.00,CLR,SCT,0.00,WeatherDisplay:10.37,2013-04-14 10:49:00,
2013-04-14 06:50:00,36.0,30.4,29.97,SW,216,0.0,0.0,80,0.00,CLR,SCT,0.00,WeatherDisplay:10.37,2013-04-14 10:50:00,
2013-04-14 06:53:00,35.9,30.3,29.97,SW,216,0.0,0.0,80,0.00,CLR,SCT,0.00,WeatherDisplay:10.37,2013-04-14 10:53:00,
2013-04-14 06:55:00,35.9,30.3,29.97,SW,216,0.0,0.0,80,0.00,CLR,SCT,0.00,WeatherDisplay:10.37,2013-04-14 10:55:00,
2013-04-14 06:57:00,36.0,30.4,29.97,SW,216,0.0,0.0,80,0.00,CLR,SCT,0.00,WeatherDisplay:10.37,2013-04-14 10:57:00,
2013-04-14 06:59:00,36.0,30.4,29.97,South,190,0.0,0.0,80,0.00,CLR,SCT,0.00,WeatherDisplay:10.37,2013-04-14 10:59:00,
2013-04-14 07:02:00,36.0,30.4,29.98,South,190,0.0,0.0,80,0.00,CLR,SCT,0.00,WeatherDisplay:10.37,2013-04-14 11:02:00,
2013-04-14 07:03:00,36.0,30.4,29.98,South,190,0.0,0.0,80,0.00,CLR,SCT,0.00,WeatherDisplay:10.37,2013-04-14 11:03:00,
2013-04-14 07:04:00,35.9,30.3,29.98,South,190,0.0,0.0,80,0.00,CLR,SCT,0.00,WeatherDisplay:10.37,2013-04-14 11:04:00,
2013-04-14 07:08:00,35.9,30.6,29.99,South,188,0.0,0.0,81,0.00,CLR,SCT,0.00,WeatherDisplay:10.37,2013-04-14 11:08:00,
2013-04-14 07:09:00,35.9,30.3,29.98,South,188,0.0,0.0,80,0.00,CLR,SCT,0.00,WeatherDisplay:10.37,2013-04-14 11:09:00,
2013-04-14 07:10:00,35.8,30.5,29.98,South,188,0.0,0.0,81,0.00,CLR,SCT,0.00,WeatherDisplay:10.37,2013-04-14 11:10:00,
2013-04-14 07:15:00,35.9,30.6,29.98,South,188,0.0,0.0,81,0.00,CLR,SCT,0.00,WeatherDisplay:10.37,2013-04-14 11:15:00,
2013-04-14 07:16:00,36.0,30.7,29.98,South,188,0.0,0.0,81,0.00,CLR,SCT,0.00,WeatherDisplay:10.37,2013-04-14 11:16:00,
2013-04-14 07:20:00,36.3,31.0,29.98,South,188,0.0,0.0,81,0.00,CLR,SCT,0.00,WeatherDisplay:10.37,2013-04-14 11:20:00,
2013-04-14 07:21:00,36.3,31.0,29.98,South,188,0.0,0.0,81,0.00,CLR,SCT,0.00,WeatherDisplay:10.37,2013-04-14 11:21:00,
2013-04-14 07:22:00,36.5,31.2,29.98,South,188,0.0,0.0,81,0.00,CLR,SCT,0.00,WeatherDisplay:10.37,2013-04-14 11:22:00,
2013-04-14 07:25:00,36.8,31.5,29.98,South,188,0.0,0.0,81,0.00,CLR,SCT,0.00,WeatherDisplay:10.37,2013-04-14 11:25:00,
2013-04-14 07:27:00,36.9,31.6,29.98,South,189,0.0,0.0,81,0.00,CLR,SCT,0.00,WeatherDisplay:10.37,2013-04-14 11:27:00,
2013-04-14 07:29:00,36.9,31.6,29.98,South,186,0.0,0.0,81,0.00,CLR,SCT,0.00,WeatherDisplay:10.37,2013-04-14 11:29:00,
2013-04-14 07:30:00,37.0,31.7,29.98,South,186,0.0,0.0,81,0.00,CLR,SCT,0.00,WeatherDisplay:10.37,2013-04-14 11:30:00,
2013-04-14 07:34:00,37.2,32.2,29.98,South,186,0.0,0.0,82,0.00,CLR,SCT,0.00,WeatherDisplay:10.37,2013-04-14 11:34:00,
2013-04-14 07:35:00,37.2,32.2,29.98,South,186,0.0,0.0,82,0.00,CLR,SCT,0.00,WeatherDisplay:10.37,2013-04-14 11:35:00,
2013-04-14 07:37:00,37.3,32.3,29.98,South,186,0.0,0.0,82,0.00,CLR,SCT,0.00,WeatherDisplay:10.37,2013-04-14 11:37:00,
2013-04-14 07:41:00,37.5,32.5,29.98,South,186,0.0,0.0,82,0.00,CLR,SCT,0.00,WeatherDisplay:10.37,2013-04-14 11:41:00,
2013-04-14 07:42:00,37.5,32.5,29.98,South,186,0.0,0.0,82,0.00,CLR,SCT,0.00,WeatherDisplay:10.37,2013-04-14 11:42:00,
2013-04-14 07:45:00,37.6,32.6,29.98,South,186,0.0,0.0,82,0.00,CLR,SCT,0.00,WeatherDisplay:10.37,2013-04-14 11:45:00,
2013-04-14 07:47:00,37.8,32.8,29.98,South,186,0.0,0.0,82,0.00,CLR,SCT,0.00,WeatherDisplay:10.37,2013-04-14 11:47:00,
2013-04-14 07:48:00,37.9,32.9,29.98,South,186,0.0,0.0,82,0.00,CLR,SCT,0.00,WeatherDisplay:10.37,2013-04-14 11:48:00,
2013-04-14 07:50:00,38.0,33.0,29.98,South,186,0.0,0.0,82,0.00,CLR,SCT,0.00,WeatherDisplay:10.37,2013-04-14 11:50:00,
2013-04-14 07:52:00,38.3,33.3,29.98,South,186,0.0,0.0,82,0.00,CLR,SCT,0.00,WeatherDisplay:10.37,2013-04-14 11:52:00,
2013-04-14 07:53:00,38.3,33.3,29.98,South,184,0.0,0.0,82,0.00,CLR,SCT,0.00,WeatherDisplay:10.37,2013-04-14 11:53:00,
2013-04-14 07:55:00,38.6,33.6,29.98,South,184,0.0,0.0,82,0.00,CLR,SCT,0.00,WeatherDisplay:10.37,2013-04-14 11:55:00,
2013-04-14 08:00:00,39.1,34.1,29.98,South,184,0.0,0.0,82,0.00,CLR,SCT,0.00,WeatherDisplay:10.37,2013-04-14 12:00:00,
2013-04-14 08:01:00,39.2,34.2,29.98,South,184,0.0,0.0,82,0.00,CLR,SCT,0.00,WeatherDisplay:10.37,2013-04-14 12:01:00,
2013-04-14 08:02:00,39.3,34.3,29.98,South,184,0.0,0.0,82,0.00,CLR,SCT,0.00,WeatherDisplay:10.37,2013-04-14 12:02:00,
2013-04-14 08:07:00,39.9,35.2,29.99,South,184,0.0,0.0,83,0.00,CLR,SCT,0.00,WeatherDisplay:10.37,2013-04-14 12:07:00,
2013-04-14 08:08:00,40.1,35.4,29.99,South,184,0.0,0.0,83,0.00,CLR,SCT,0.00,WeatherDisplay:10.37,2013-04-14 12:08:00,
2013-04-14 08:10:00,40.3,35.5,29.99,South,184,0.0,0.0,83,0.00,CLR,SCT,0.00,WeatherDisplay:10.37,2013-04-14 12:10:00,
2013-04-14 08:12:00,40.6,35.8,29.99,South,184,0.0,0.0,83,0.00,CLR,SCT,0.00,WeatherDisplay:10.37,2013-04-14 12:12:00,
2013-04-14 08:14:00,40.9,36.1,29.99,South,184,0.0,0.0,83,0.00,CLR,SCT,0.00,WeatherDisplay:10.37,2013-04-14 12:14:00,
2013-04-14 08:16:00,41.2,36.4,29.99,South,184,0.0,0.0,83,0.00,CLR,SCT,0.00,WeatherDisplay:10.37,2013-04-14 12:16:00,
2013-04-14 08:19:00,41.6,36.8,29.99,South,184,0.0,0.0,83,0.00,CLR,SCT,0.00,WeatherDisplay:10.37,2013-04-14 12:19:00,
2013-04-14 08:21:00,41.9,37.1,29.99,South,184,0.0,0.0,83,0.00,CLR,SCT,0.00,WeatherDisplay:10.37,2013-04-14 12:21:00,
2013-04-14 08:22:00,42.1,37.3,29.99,South,188,0.0,0.0,83,0.00,CLR,SCT,0.00,WeatherDisplay:10.37,2013-04-14 12:22:00,
2013-04-14 08:23:00,42.2,37.4,29.99,South,189,0.0,0.0,83,0.00,CLR,SCT,0.00,WeatherDisplay:10.37,2013-04-14 12:23:00,
2013-04-14 08:24:00,42.5,37.7,29.99,South,188,0.0,0.0,83,0.00,CLR,SCT,0.00,WeatherDisplay:10.37,2013-04-14 12:24:00,
2013-04-14 08:29:00,43.2,38.4,29.99,SW,217,0.0,0.0,83,0.00,CLR,SCT,0.00,WeatherDisplay:10.37,2013-04-14 12:29:00,
2013-04-14 08:30:00,43.3,38.5,29.99,SW,217,0.0,0.0,83,0.00,CLR,SCT,0.00,WeatherDisplay:10.37,2013-04-14 12:30:00,
2013-04-14 08:32:00,43.8,39.0,29.99,WNW,294,0.0,0.0,83,0.00,CLR,SCT,0.00,WeatherDisplay:10.37,2013-04-14 12:32:00,
2013-04-14 08:34:00,44.1,39.3,29.99,WNW,300,0.0,0.0,83,0.00,CLR,SCT,0.00,WeatherDisplay:10.37,2013-04-14 12:34:00,
2013-04-14 08:36:00,44.3,39.5,29.99,WNW,300,0.0,0.0,83,0.00,CLR,SCT,0.00,WeatherDisplay:10.37,2013-04-14 12:36:00,
2013-04-14 08:37:00,44.6,39.8,29.99,WNW,300,0.0,0.0,83,0.00,CLR,SCT,0.00,WeatherDisplay:10.37,2013-04-14 12:37:00,
2013-04-14 08:42:00,45.5,40.6,29.99,WNW,302,0.0,0.0,83,0.00,CLR,SCT,0.00,WeatherDisplay:10.37,2013-04-14 12:42:00,
2013-04-14 08:43:00,45.7,40.8,29.98,WNW,302,0.0,0.0,83,0.00,CLR,SCT,0.00,WeatherDisplay:10.37,2013-04-14 12:43:00,
2013-04-14 08:44:00,45.8,40.9,29.98,WNW,302,0.0,0.0,83,0.00,CLR,SCT,0.00,WeatherDisplay:10.37,2013-04-14 12:44:00,
2013-04-14 08:48:00,46.4,41.5,29.98,NW,305,1.1,1.1,83,0.00,CLR,SCT,0.00,WeatherDisplay:10.37,2013-04-14 12:48:00,
2013-04-14 08:49:00,46.7,41.8,29.98,ENE,67,0.0,0.0,83,0.00,CLR,SCT,0.00,WeatherDisplay:10.37,2013-04-14 12:49:00,
2013-04-14 08:50:00,46.8,41.9,29.98,ENE,67,0.0,0.0,83,0.00,CLR,SCT,0.00,WeatherDisplay:10.37,2013-04-14 12:50:00,
2013-04-14 08:54:00,47.6,42.7,29.98,ENE,67,0.0,0.0,83,0.00,CLR,SCT,0.00,WeatherDisplay:10.37,2013-04-14 12:54:00,
2013-04-14 08:55:00,47.7,42.5,29.98,ENE,67,0.0,0.0,82,0.00,CLR,SCT,0.00,WeatherDisplay:10.37,2013-04-14 12:55:00,
2013-04-14 08:59:00,48.5,43.3,29.98,ENE,76,4.0,4.0,82,0.00,CLR,SCT,0.00,WeatherDisplay:10.37,2013-04-14 12:59:00,
2013-04-14 09:00:00,48.6,43.0,29.98,ENE,76,4.6,4.6,81,0.00,CLR,SCT,0.00,WeatherDisplay:10.37,2013-04-14 13:00:00,
2013-04-14 09:02:00,48.9,43.3,29.98,ENE,76,0.0,0.0,81,0.00,CLR,SCT,0.00,WeatherDisplay:10.37,2013-04-14 13:02:00,
2013-04-14 09:04:00,49.2,43.6,29.98,ENE,66,3.5,3.5,81,0.00,CLR,SCT,0.00,WeatherDisplay:10.37,2013-04-14 13:04:00,
2013-04-14 09:06:00,49.5,43.9,29.98,ENE,75,3.5,3.5,81,0.00,CLR,SCT,0.00,WeatherDisplay:10.37,2013-04-14 13:06:00,
2013-04-14 09:07:00,49.6,43.7,29.98,ENE,57,3.5,3.5,80,0.00,CLR,SCT,0.00,WeatherDisplay:10.37,2013-04-14 13:07:00,
2013-04-14 09:09:00,49.9,44.0,29.98,ENE,57,3.5,3.5,80,0.00,CLR,SCT,0.00,WeatherDisplay:10.37,2013-04-14 13:09:00,
2013-04-14 09:11:00,50.1,43.8,29.98,ENE,57,2.3,2.3,79,0.00,CLR,SCT,0.00,WeatherDisplay:10.37,2013-04-14 13:11:00,
2013-04-14 09:14:00,50.5,44.2,29.98,ENE,65,3.5,3.5,79,0.00,CLR,SCT,0.00,WeatherDisplay:10.37,2013-04-14 13:14:00,
2013-04-14 09:17:00,51.0,44.7,29.98,NE,48,1.1,1.1,79,0.00,CLR,SCT,0.00,WeatherDisplay:10.37,2013-04-14 13:17:00,
2013-04-14 09:19:00,51.1,44.8,29.98,NE,51,2.3,2.3,79,0.00,CLR,SCT,0.00,WeatherDisplay:10.37,2013-04-14 13:19:00,
2013-04-14 09:22:00,51.6,45.3,29.98,NE,51,1.1,1.1,79,0.00,CLR,SCT,0.00,WeatherDisplay:10.37,2013-04-14 13:22:00,
2013-04-14 09:25:00,52.0,45.4,29.98,NE,52,2.3,2.3,78,0.00,CLR,SCT,0.00,WeatherDisplay:10.37,2013-04-14 13:25:00,
2013-04-14 09:28:00,52.3,45.6,29.98,NE,52,0.0,0.0,78,0.00,CLR,SCT,0.00,WeatherDisplay:10.37,2013-04-14 13:28:00,
2013-04-14 09:32:00,52.9,45.9,29.98,ENE,65,2.3,2.3,77,0.00,CLR,SCT,0.00,WeatherDisplay:10.37,2013-04-14 13:32:00,
2013-04-14 09:38:00,53.6,46.6,29.97,ENE,65,2.0,2.0,77,0.00,CLR,SCT,0.00,WeatherDisplay:10.37,2013-04-14 13:38:00,
2013-04-14 09:39:00,53.8,46.4,29.97,ENE,67,2.3,2.3,76,0.00,CLR,SCT,0.00,WeatherDisplay:10.37,2013-04-14 13:39:00,
2013-04-14 09:41:00,53.9,46.5,29.97,ENE,67,2.3,2.3,76,0.00,CLR,SCT,0.00,WeatherDisplay:10.37,2013-04-14 13:41:00,
2013-04-14 09:43:00,54.2,46.8,29.97,ENE,67,0.0,0.0,76,0.00,CLR,SCT,0.00,WeatherDisplay:10.37,2013-04-14 13:43:00,
2013-04-14 09:48:00,54.8,47.0,29.97,ENE,69,3.5,3.5,75,0.00,CLR,SCT,0.00,WeatherDisplay:10.37,2013-04-14 13:48:00,
2013-04-14 09:50:00,55.1,47.0,29.97,ENE,69,2.3,2.3,74,0.00,CLR,SCT,0.00,WeatherDisplay:10.37,2013-04-14 13:50:00,
2013-04-14 09:54:00,55.6,47.4,29.96,East,83,5.8,5.8,74,0.00,CLR,SCT,0.00,WeatherDisplay:10.37,2013-04-14 13:54:00,
2013-04-14 09:55:00,55.6,47.4,29.96,East,84,6.9,6.9,74,0.00,CLR,SCT,0.00,WeatherDisplay:10.37,2013-04-14 13:55:00,
2013-04-14 09:58:00,56.0,47.5,29.96,ENE,74,5.8,5.8,73,0.00,CLR,SCT,0.00,WeatherDisplay:10.37,2013-04-14 13:58:00,
2013-04-14 09:59:00,56.2,48.0,29.96,ENE,74,7.0,7.0,74,0.00,CLR,SCT,0.00,WeatherDisplay:10.37,2013-04-14 13:59:00,
2013-04-14 10:04:00,56.6,48.0,29.96,ENE,74,1.1,1.1,73,0.00,CLR,SCT,0.00,WeatherDisplay:10.37,2013-04-14 14:04:00,
2013-04-14 10:05:00,56.7,48.1,29.96,ENE,74,2.3,2.3,73,0.00,CLR,SCT,0.00,WeatherDisplay:10.37,2013-04-14 14:05:00,
2013-04-14 10:09:00,57.3,48.7,29.96,ENE,77,2.3,2.3,73,0.00,CLR,SCT,0.00,WeatherDisplay:10.37,2013-04-14 14:09:00,
2013-04-14 10:10:00,57.5,48.9,29.96,ENE,77,2.0,2.0,73,0.00,CLR,SCT,0.00,WeatherDisplay:10.37,2013-04-14 14:10:00,
2013-04-14 10:12:00,57.6,48.6,29.95,ENE,77,2.3,2.3,72,0.00,CLR,SCT,0.00,WeatherDisplay:10.37,2013-04-14 14:12:00,
2013-04-14 10:13:00,57.8,48.8,29.95,ENE,77,1.1,1.1,72,0.00,CLR,SCT,0.00,WeatherDisplay:10.37,2013-04-14 14:13:00,
2013-04-14 10:17:00,58.4,49.4,29.95,ENE,77,1.1,1.1,72,0.00,CLR,SCT,0.00,WeatherDisplay:10.37,2013-04-14 14:17:00,
2013-04-14 10:18:00,58.6,49.6,29.95,ENE,77,1.1,1.1,72,0.00,CLR,SCT,0.00,WeatherDisplay:10.37,2013-04-14 14:18:00,
2013-04-14 10:22:00,59.0,49.6,29.95,ENE,77,2.3,2.3,71,0.00,CLR,SCT,0.00,WeatherDisplay:10.37,2013-04-14 14:22:00,
2013-04-14 10:23:00,59.2,49.4,29.94,ENE,77,3.5,3.5,70,0.00,CLR,SCT,0.00,WeatherDisplay:10.37,2013-04-14 14:23:00,
2013-04-14 10:28:00,59.6,49.8,29.94,ENE,77,2.3,2.3,70,0.00,CLR,SCT,0.00,WeatherDisplay:10.37,2013-04-14 14:28:00,
2013-04-14 10:29:00,59.8,50.0,29.94,ENE,77,1.1,0.0,70,0.00,CLR,SCT,0.00,WeatherDisplay:10.37,2013-04-14 14:29:00,
2013-04-14 10:31:00,59.9,50.1,29.94,ENE,77,1.1,1.1,70,0.00,CLR,SCT,0.00,WeatherDisplay:10.37,2013-04-14 14:31:00,
2013-04-14 10:34:00,60.2,50.0,29.94,East,80,0.0,0.0,69,0.00,CLR,SCT,0.00,WeatherDisplay:10.37,2013-04-14 14:34:00,
2013-04-14 10:35:00,60.4,50.2,29.94,ENE,70,0.0,0.0,69,0.00,CLR,SCT,0.00,WeatherDisplay:10.37,2013-04-14 14:35:00,
2013-04-14 10:36:00,60.4,50.2,29.94,ENE,70,2.3,2.3,69,0.00,CLR,SCT,0.00,WeatherDisplay:10.37,2013-04-14 14:36:00,
2013-04-14 10:37:00,60.5,50.3,29.94,ENE,70,1.1,0.0,69,0.00,CLR,SCT,0.00,WeatherDisplay:10.37,2013-04-14 14:37:00,
2013-04-14 10:40:00,60.9,50.7,29.94,ENE,70,3.5,3.5,69,0.00,CLR,SCT,0.00,WeatherDisplay:10.37,2013-04-14 14:40:00,
2013-04-14 10:44:00,61.3,51.0,29.94,SSE,165,0.0,0.0,69,0.00,CLR,SCT,0.00,WeatherDisplay:10.37,2013-04-14 14:44:00,
2013-04-14 10:45:00,61.5,51.2,29.94,SSE,165,0.0,0.0,69,0.00,CLR,SCT,0.00,WeatherDisplay:10.37,2013-04-14 14:45:00,
2013-04-14 10:49:00,62.0,51.7,29.93,SSE,165,0.0,0.0,69,0.00,CLR,SCT,0.00,WeatherDisplay:10.37,2013-04-14 14:49:00,
2013-04-14 10:50:00,62.1,51.8,29.93,SSE,165,1.0,1.0,69,0.00,CLR,SCT,0.00,WeatherDisplay:10.37,2013-04-14 14:50:00,
2013-04-14 10:53:00,62.4,52.1,29.93,ESE,113,0.0,0.0,69,0.00,CLR,SCT,0.00,WeatherDisplay:10.37,2013-04-14 14:53:00,
2013-04-14 10:54:00,62.6,52.3,29.93,ESE,114,0.0,0.2,69,0.00,CLR,SCT,0.00,WeatherDisplay:10.37,2013-04-14 14:54:00,
2013-04-14 10:55:00,62.7,52.4,29.93,SE,128,1.1,1.1,69,0.00,CLR,SCT,0.00,WeatherDisplay:10.37,2013-04-14 14:55:00,
2013-04-14 10:59:00,63.2,52.5,29.93,SSW,209,1.0,1.0,68,0.00,CLR,SCT,0.00,WeatherDisplay:10.37,2013-04-14 14:59:00,
2013-04-14 11:02:00,63.5,52.7,29.93,North,355,2.3,0.0,68,0.00,CLR,SCT,0.00,WeatherDisplay:10.37,2013-04-14 15:02:00,
2013-04-14 11:04:00,63.7,52.5,29.92,North,355,1.1,0.0,67,0.00,CLR,SCT,0.00,WeatherDisplay:10.37,2013-04-14 15:04:00,
2013-04-14 11:07:00,64.0,52.8,29.92,North,5,2.0,2.0,67,0.00,,SCT,0.00,WeatherDisplay:10.37,2013-04-14 15:07:00,
2013-04-14 11:09:00,64.2,52.6,29.92,North,5,3.5,3.5,66,0.00,,SCT,0.00,WeatherDisplay:10.37,2013-04-14 15:09:00,
2013-04-14 11:11:00,64.3,52.7,29.92,North,5,2.3,2.3,66,0.00,,SCT,0.00,WeatherDisplay:10.37,2013-04-14 15:11:00,
2013-04-14 11:13:00,64.5,52.9,29.92,North,5,2.0,2.0,66,0.00,,SCT,0.00,WeatherDisplay:10.37,2013-04-14 15:13:00,
2013-04-14 11:16:00,64.8,52.8,29.92,NE,48,3.5,3.5,65,0.00,,SCT,0.00,WeatherDisplay:10.37,2013-04-14 15:16:00,
2013-04-14 11:17:00,64.8,52.8,29.92,NE,48,3.5,0.0,65,0.00,,SCT,0.00,WeatherDisplay:10.37,2013-04-14 15:17:00,
2013-04-14 11:18:00,65.0,52.9,29.92,NE,48,2.3,2.3,65,0.00,,SCT,0.00,WeatherDisplay:10.37,2013-04-14 15:18:00,
2013-04-14 11:21:00,65.3,52.8,29.92,NE,48,3.5,3.5,64,0.00,,SCT,0.00,WeatherDisplay:10.37,2013-04-14 15:21:00,
2013-04-14 11:23:00,65.3,52.8,29.92,NE,48,3.5,3.5,64,0.00,,SCT,0.00,WeatherDisplay:10.37,2013-04-14 15:23:00,
2013-04-14 11:26:00,65.6,52.7,29.91,NE,42,3.5,3.5,63,0.00,,SCT,0.00,WeatherDisplay:10.37,2013-04-14 15:26:00,
2013-04-14 11:28:00,65.6,52.2,29.91,ENE,61,2.3,2.3,62,0.00,,SCT,0.00,WeatherDisplay:10.37,2013-04-14 15:28:00,
2013-04-14 11:29:00,65.6,52.2,29.91,ENE,61,3.5,3.5,62,0.00,,SCT,0.00,WeatherDisplay:10.37,2013-04-14 15:29:00,
2013-04-14 11:33:00,65.8,52.4,29.92,ENE,61,0.0,0.0,62,0.00,,SCT,0.00,WeatherDisplay:10.37,2013-04-14 15:33:00,
2013-04-14 11:34:00,66.0,53.0,29.92,ENE,61,0.0,0.0,63,0.00,,SCT,0.00,WeatherDisplay:10.37,2013-04-14 15:34:00,
2013-04-14 11:35:00,66.0,52.6,29.92,ENE,61,0.0,0.0,62,0.00,,SCT,0.00,WeatherDisplay:10.37,2013-04-14 15:35:00,
2013-04-14 11:38:00,66.3,53.3,29.92,ENE,61,0.0,0.0,63,0.00,,SCT,0.00,WeatherDisplay:10.37,2013-04-14 15:38:00,
2013-04-14 11:40:00,66.4,53.4,29.92,ENE,61,0.0,0.0,63,0.00,,SCT,0.00,WeatherDisplay:10.37,2013-04-14 15:40:00,
2013-04-14 11:41:00,66.4,53.0,29.92,ENE,61,2.0,2.0,62,0.00,,SCT,0.00,WeatherDisplay:10.37,2013-04-14 15:41:00,
2013-04-14 11:46:00,66.9,52.6,29.92,ENE,61,1.1,0.0,60,0.00,,SCT,0.00,WeatherDisplay:10.37,2013-04-14 15:46:00,
2013-04-14 11:49:00,67.3,53.4,29.92,ENE,61,1.0,0.0,61,0.00,,SCT,0.00,WeatherDisplay:10.37,2013-04-14 15:49:00,
2013-04-14 11:50:00,67.3,52.9,29.92,ENE,61,2.3,2.3,60,0.00,,SCT,0.00,WeatherDisplay:10.37,2013-04-14 15:50:00,
2013-04-14 11:52:00,67.6,53.2,29.92,ENE,61,2.3,2.3,60,0.00,,SCT,0.00,WeatherDisplay:10.37,2013-04-14 15:52:00,
2013-04-14 11:55:00,67.8,52.9,29.91,ENE,61,2.3,2.3,59,0.00,,SCT,0.00,WeatherDisplay:10.37,2013-04-14 15:55:00,
2013-04-14 11:57:00,68.1,52.8,29.91,ENE,61,2.3,2.3,58,0.00,,SCT,0.00,WeatherDisplay:10.37,2013-04-14 15:57:00,
2013-04-14 11:59:00,68.3,53.4,29.91,ENE,61,0.0,0.0,59,0.00,,SCT,0.00,WeatherDisplay:10.37,2013-04-14 15:59:00,
2013-04-14 12:00:00,68.3,53.4,29.91,ENE,61,0.0,0.0,59,0.00,,SCT,0.00,WeatherDisplay:10.37,2013-04-14 16:00:00,
2013-04-14 12:04:00,68.6,53.7,29.91,ENE,61,0.0,0.0,59,0.00,,SCT,0.00,WeatherDisplay:10.37,2013-04-14 16:04:00,
2013-04-14 12:05:00,68.8,53.4,29.91,ENE,61,0.0,0.0,58,0.00,,SCT,0.00,WeatherDisplay:10.37,2013-04-14 16:05:00,
2013-04-14 12:07:00,68.9,53.0,29.91,ENE,61,3.5,3.5,57,0.00,,SCT,0.00,WeatherDisplay:10.37,2013-04-14 16:07:00,
2013-04-14 12:10:00,69.1,53.7,29.91,ENE,61,0.0,0.0,58,0.00,,SCT,0.00,WeatherDisplay:10.37,2013-04-14 16:10:00,
2013-04-14 12:12:00,69.3,53.4,29.91,ENE,61,2.3,2.3,57,0.00,,SCT,0.00,WeatherDisplay:10.37,2013-04-14 16:12:00,
2013-04-14 12:15:00,69.6,53.2,29.91,ENE,61,2.3,0.0,56,0.00,,SCT,0.00,WeatherDisplay:10.37,2013-04-14 16:15:00,
2013-04-14 12:16:00,69.6,53.2,29.91,ENE,61,2.0,2.0,56,0.00,,SCT,0.00,WeatherDisplay:10.37,2013-04-14 16:16:00,
2013-04-14 12:18:00,69.6,52.2,29.91,ENE,61,2.3,2.3,54,0.00,,SCT,0.00,WeatherDisplay:10.37,2013-04-14 16:18:00,
2013-04-14 12:21:00,69.8,52.9,29.91,ENE,61,0.0,0.0,55,0.00,,SCT,0.00,WeatherDisplay:10.37,2013-04-14 16:21:00,
2013-04-14 12:22:00,69.9,53.5,29.91,ENE,63,0.0,0.0,56,0.00,,SCT,0.00,WeatherDisplay:10.37,2013-04-14 16:22:00,
2013-04-14 12:24:00,70.1,52.7,29.91,ENE,63,0.0,0.0,54,0.00,,SCT,0.00,WeatherDisplay:10.37,2013-04-14 16:24:00,
2013-04-14 12:26:00,70.1,52.7,29.91,NNE,17,0.0,0.0,54,0.00,,SCT,0.00,WeatherDisplay:10.37,2013-04-14 16:26:00,
2013-04-14 12:31:00,70.4,52.4,29.90,West,259,4.6,4.6,53,0.00,,SCT,0.00,WeatherDisplay:10.37,2013-04-14 16:31:00,
2013-04-14 12:33:00,70.6,51.1,29.90,WSW,251,11.5,11.5,50,0.00,,SCT,0.00,WeatherDisplay:10.37,2013-04-14 16:33:00,
2013-04-14 12:36:00,70.9,50.8,29.90,SE,146,10.4,10.4,49,0.00,,SCT,0.00,WeatherDisplay:10.37,2013-04-14 16:36:00,
2013-04-14 12:37:00,70.9,50.2,29.90,SE,145,11.5,11.5,48,0.00,,SCT,0.00,WeatherDisplay:10.37,2013-04-14 16:37:00,
2013-04-14 12:38:00,70.9,50.2,29.90,SSE,157,9.0,9.0,48,0.00,,SCT,0.00,WeatherDisplay:10.37,2013-04-14 16:38:00,
2013-04-14 12:39:00,71.1,50.4,29.90,SSE,159,10.4,10.4,48,0.00,,SCT,0.00,WeatherDisplay:10.37,2013-04-14 16:39:00,
2013-04-14 12:41:00,71.3,50.6,29.90,WNW,282,8.1,8.1,48,0.00,,SCT,0.00,WeatherDisplay:10.37,2013-04-14 16:41:00,
2013-04-14 12:44:00,71.5,51.3,29.90,SSW,203,7.0,7.0,49,0.00,,SCT,0.00,WeatherDisplay:10.37,2013-04-14 16:44:00,
2013-04-14 12:45:00,71.6,50.3,29.90,SE,137,10.0,10.0,47,0.00,,SCT,0.00,WeatherDisplay:10.37,2013-04-14 16:45:00,
2013-04-14 12:46:00,71.6,50.3,29.90,SE,145,10.4,10.4,47,0.00,,SCT,0.00,WeatherDisplay:10.37,2013-04-14 16:46:00,
2013-04-14 12:49:00,72.0,51.2,29.90,SSE,165,8.1,8.1,48,0.00,,SCT,0.00,WeatherDisplay:10.37,2013-04-14 16:49:00,
2013-04-14 12:50:00,72.1,51.3,29.90,SSW,204,9.0,9.0,48,0.00,,SCT,0.00,WeatherDisplay:10.37,2013-04-14 16:50:00,
2013-04-14 12:52:00,72.1,49.0,29.90,SSW,196,10.4,10.4,44,0.00,,SCT,0.00,WeatherDisplay:10.37,2013-04-14 16:52:00,
2013-04-14 12:54:00,72.3,49.8,29.89,SE,139,6.9,6.9,45,0.00,,SCT,0.00,WeatherDisplay:10.37,2013-04-14 16:54:00,
2013-04-14 12:55:00,72.3,49.8,29.89,South,190,7.0,7.0,45,0.00,,SCT,0.00,WeatherDisplay:10.37,2013-04-14 16:55:00,
2013-04-14 12:59:00,72.5,49.3,29.89,SW,235,12.7,12.7,44,0.00,,SCT,0.00,WeatherDisplay:10.37,2013-04-14 16:59:00,
2013-04-14 13:00:00,72.5,49.3,29.89,SSW,205,11.0,11.0,44,0.00,,SCT,0.00,WeatherDisplay:10.37,2013-04-14 17:00:00,
2013-04-14 13:02:00,72.7,48.3,29.89,SSW,204,11.5,11.5,42,0.00,,SCT,0.00,WeatherDisplay:10.37,2013-04-14 17:02:00,
2013-04-14 13:05:00,72.7,48.3,29.89,SSW,202,8.1,8.1,42,0.00,,SCT,0.00,WeatherDisplay:10.37,2013-04-14 17:05:00,
2013-04-14 13:06:00,72.7,48.3,29.89,South,184,5.8,5.8,42,0.00,,SCT,0.00,WeatherDisplay:10.37,2013-04-14 17:06:00,
2013-04-14 13:07:00,72.8,49.0,29.89,SW,225,9.2,9.2,43,0.00,,SCT,0.00,WeatherDisplay:10.37,2013-04-14 17:07:00,
2013-04-14 13:10:00,72.8,47.7,29.88,West,275,10.4,10.4,41,0.00,,SCT,0.00,WeatherDisplay:10.37,2013-04-14 17:10:00,
2013-04-14 13:12:00,72.8,46.4,29.88,SSW,195,10.4,10.4,39,0.00,,SCT,0.00,WeatherDisplay:10.37,2013-04-14 17:12:00,
2013-04-14 13:15:00,72.8,46.4,29.88,South,182,10.4,10.4,39,0.00,,SCT,0.00,WeatherDisplay:10.37,2013-04-14 17:15:00,
2013-04-14 13:16:00,72.8,47.7,29.88,SW,227,9.0,9.0,41,0.00,,SCT,0.00,WeatherDisplay:10.37,2013-04-14 17:16:00,
2013-04-14 13:18:00,72.8,44.3,29.88,SW,215,16.1,16.1,36,0.00,,SCT,0.00,WeatherDisplay:10.37,2013-04-14 17:18:00,
2013-04-14 13:19:00,72.8,46.4,29.88,SSW,213,12.7,12.7,39,0.00,,SCT,0.00,WeatherDisplay:10.37,2013-04-14 17:19:00,
2013-04-14 13:21:00,72.8,46.4,29.88,South,180,11.5,11.5,39,0.00,,SCT,0.00,WeatherDisplay:10.37,2013-04-14 17:21:00,
2013-04-14 13:24:00,73.0,47.2,29.88,SSE,164,10.4,10.4,40,0.00,,SCT,0.00,WeatherDisplay:10.37,2013-04-14 17:24:00,
2013-04-14 13:26:00,73.0,47.2,29.88,SSE,150,9.2,9.2,40,0.00,,SCT,0.00,WeatherDisplay:10.37,2013-04-14 17:26:00,
2013-04-14 13:29:00,73.0,47.2,29.88,SW,229,7.0,7.0,40,0.00,,SCT,0.00,WeatherDisplay:10.37,2013-04-14 17:29:00,
2013-04-14 13:31:00,73.0,46.6,29.88,SSW,209,5.8,5.8,39,0.00,,SCT,0.00,WeatherDisplay:10.37,2013-04-14 17:31:00,
2013-04-14 13:32:00,73.0,46.6,29.88,SSW,209,5.8,5.8,39,0.00,,SCT,0.00,WeatherDisplay:10.37,2013-04-14 17:32:00,
2013-04-14 13:34:00,73.0,47.2,29.88,SSW,192,8.1,8.1,40,0.00,,SCT,0.00,WeatherDisplay:10.37,2013-04-14 17:34:00,
2013-04-14 13:37:00,73.0,45.9,29.88,SW,219,10.4,10.4,38,0.00,,SCT,0.00,WeatherDisplay:10.37,2013-04-14 17:37:00,
2013-04-14 13:39:00,73.0,43.7,29.88,SW,221,15.0,15.0,35,0.00,,SCT,0.00,WeatherDisplay:10.37,2013-04-14 17:39:00,
2013-04-14 13:44:00,73.0,45.2,29.88,WSW,238,16.1,16.1,37,0.00,,SCT,0.00,WeatherDisplay:10.37,2013-04-14 17:44:00,
2013-04-14 13:49:00,73.0,43.7,29.88,West,273,11.5,11.5,35,0.00,,SCT,0.00,WeatherDisplay:10.37,2013-04-14 17:49:00,
2013-04-14 13:51:00,73.0,43.7,29.88,South,177,18.4,18.4,35,0.00,,SCT,0.00,WeatherDisplay:10.37,2013-04-14 17:51:00,
2013-04-14 13:54:00,73.0,43.7,29.88,SSW,213,15.0,15.0,35,0.00,,SCT,0.00,WeatherDisplay:10.37,2013-04-14 17:54:00,
2013-04-14 13:57:00,73.0,43.7,29.88,SSE,165,10.4,10.4,35,0.00,,SCT,0.00,WeatherDisplay:10.37,2013-04-14 17:57:00,
2013-04-14 13:59:00,73.0,43.7,29.88,SW,228,12.7,12.7,35,0.00,,SCT,0.00,WeatherDisplay:10.37,2013-04-14 17:59:00,
2013-04-14 14:00:00,73.0,43.7,29.88,SSE,154,12.0,12.0,35,0.00,,SCT,0.00,WeatherDisplay:10.37,2013-04-14 18:00:00,
2013-04-14 14:04:00,73.0,43.0,29.88,SSW,205,8.1,8.1,34,0.00,,SCT,0.00,WeatherDisplay:10.37,2013-04-14 18:04:00,
2013-04-14 14:05:00,73.0,43.7,29.88,WSW,238,11.5,11.5,35,0.00,,SCT,0.00,WeatherDisplay:10.37,2013-04-14 18:05:00,
2013-04-14 14:06:00,73.0,43.0,29.88,SW,218,10.4,10.4,34,0.00,,SCT,0.00,WeatherDisplay:10.37,2013-04-14 18:06:00,
2013-04-14 14:10:00,73.0,43.0,29.88,SSW,201,11.5,11.5,34,0.00,,SCT,0.00,WeatherDisplay:10.37,2013-04-14 18:10:00,
2013-04-14 14:11:00,73.0,43.0,29.88,SSW,206,11.5,11.5,34,0.00,,SCT,0.00,WeatherDisplay:10.37,2013-04-14 18:11:00,
2013-04-14 14:12:00,73.0,43.0,29.88,WSW,244,11.5,11.5,34,0.00,,SCT,0.00,WeatherDisplay:10.37,2013-04-14 18:12:00,
2013-04-14 14:15:00,73.0,43.7,29.88,SE,140,12.7,12.7,35,0.00,,SCT,0.00,WeatherDisplay:10.37,2013-04-14 18:15:00,
2013-04-14 14:17:00,73.0,43.7,29.88,South,188,11.5,11.5,35,0.00,,SCT,0.00,WeatherDisplay:10.37,2013-04-14 18:17:00,
2013-04-14 14:18:00,73.0,43.7,29.88,South,188,13.8,13.8,35,0.00,,SCT,0.00,WeatherDisplay:10.37,2013-04-14 18:18:00,
2013-04-14 14:21:00,73.0,43.0,29.88,South,175,9.2,9.2,34,0.00,,SCT,0.00,WeatherDisplay:10.37,2013-04-14 18:21:00,
2013-04-14 14:22:00,73.2,43.9,29.88,South,173,4.6,4.6,35,0.00,,SCT,0.00,WeatherDisplay:10.37,2013-04-14 18:22:00,
2013-04-14 14:23:00,73.2,43.9,29.87,South,173,4.6,4.6,35,0.00,,SCT,0.00,WeatherDisplay:10.37,2013-04-14 18:23:00,
2013-04-14 14:27:00,73.2,42.4,29.87,SW,230,14.0,14.0,33,0.00,,SCT,0.00,WeatherDisplay:10.37,2013-04-14 18:27:00,
2013-04-14 14:28:00,73.2,40.7,29.87,SW,231,18.4,18.4,31,0.00,,SCT,0.00,WeatherDisplay:10.37,2013-04-14 18:28:00,
2013-04-14 14:32:00,73.2,40.7,29.88,South,175,13.8,13.8,31,0.00,,SCT,0.00,WeatherDisplay:10.37,2013-04-14 18:32:00,
2013-04-14 14:33:00,73.2,41.6,29.87,South,175,13.8,13.8,32,0.00,,SCT,0.00,WeatherDisplay:10.37,2013-04-14 18:33:00,
2013-04-14 14:37:00,73.0,41.4,29.87,SSE,164,11.5,11.5,32,0.00,,SCT,0.00,WeatherDisplay:10.37,2013-04-14 18:37:00,
2013-04-14 14:38:00,73.0,42.2,29.87,SSE,164,6.9,6.9,33,0.00,,SCT,0.00,WeatherDisplay:10.37,2013-04-14 18:38:00,
2013-04-14 14:39:00,73.0,43.0,29.87,SSE,164,5.0,5.0,34,0.00,,SCT,0.00,WeatherDisplay:10.37,2013-04-14 18:39:00,
2013-04-14 14:44:00,73.0,42.2,29.87,SSW,211,10.4,10.4,33,0.00,,SCT,0.00,WeatherDisplay:10.37,2013-04-14 18:44:00,
2013-04-14 14:45:00,73.0,42.2,29.87,WSW,253,5.8,5.8,33,0.00,,SCT,0.00,WeatherDisplay:10.37,2013-04-14 18:45:00,
2013-04-14 14:47:00,73.0,43.0,29.87,SSW,213,6.9,6.9,34,0.00,,SCT,0.00,WeatherDisplay:10.37,2013-04-14 18:47:00,
2013-04-14 14:49:00,73.2,43.9,29.87,SSW,197,4.6,4.6,35,0.00,,SCT,0.00,WeatherDisplay:10.37,2013-04-14 18:49:00,
2013-04-14 14:50:00,73.2,43.1,29.87,SSW,198,0.0,0.1,34,0.00,,SCT,0.00,WeatherDisplay:10.37,2013-04-14 18:50:00,
2013-04-14 14:52:00,73.2,43.1,29.87,SSW,209,6.0,6.0,34,0.00,,SCT,0.00,WeatherDisplay:10.37,2013-04-14 18:52:00,
2013-04-14 14:53:00,73.2,42.4,29.87,SW,229,6.9,6.9,33,0.00,,SCT,0.00,WeatherDisplay:10.37,2013-04-14 18:53:00,
2013-04-14 14:55:00,73.2,38.1,29.87,SSW,198,11.5,11.5,28,0.00,,SCT,0.00,WeatherDisplay:10.37,2013-04-14 18:55:00,
2013-04-14 14:58:00,73.2,41.6,29.87,South,186,11.5,11.5,32,0.00,,SCT,0.00,WeatherDisplay:10.37,2013-04-14 18:58:00,
2013-04-14 14:59:00,73.2,42.4,29.87,South,187,5.8,5.8,33,0.00,,SCT,0.00,WeatherDisplay:10.37,2013-04-14 18:59:00,
2013-04-14 15:02:00,73.2,41.6,29.87,SW,229,5.8,5.8,32,0.00,,SCT,0.00,WeatherDisplay:10.37,2013-04-14 19:02:00,
2013-04-14 15:03:00,73.2,41.6,29.87,SW,234,8.0,8.0,32,0.00,,SCT,0.00,WeatherDisplay:10.37,2013-04-14 19:03:00,
2013-04-14 15:04:00,73.2,42.4,29.87,South,190,11.5,11.5,33,0.00,,SCT,0.00,WeatherDisplay:10.37,2013-04-14 19:04:00,
2013-04-14 15:07:00,73.2,41.6,29.87,South,185,9.0,9.0,32,0.00,,SCT,0.00,WeatherDisplay:10.37,2013-04-14 19:07:00,
2013-04-14 15:09:00,73.2,42.4,29.87,South,169,10.4,10.4,33,0.00,,SCT,0.00,WeatherDisplay:10.37,2013-04-14 19:09:00,
2013-04-14 15:12:00,73.2,42.4,29.87,SSW,193,6.9,6.9,33,0.00,,SCT,0.00,WeatherDisplay:10.37,2013-04-14 19:12:00,
2013-04-14 15:13:00,73.2,43.1,29.87,SSW,196,12.0,12.0,34,0.00,,SCT,0.00,WeatherDisplay:10.37,2013-04-14 19:13:00,
2013-04-14 15:18:00,73.0,42.2,29.87,SSE,150,10.4,10.4,33,0.00,,SCT,0.00,WeatherDisplay:10.37,2013-04-14 19:18:00,
2013-04-14 15:19:00,73.0,42.2,29.87,SSW,205,6.0,6.0,33,0.00,,SCT,0.00,WeatherDisplay:10.37,2013-04-14 19:19:00,
2013-04-14 15:20:00,72.8,41.2,29.87,SSW,212,10.4,10.4,32,0.00,,SCT,0.00,WeatherDisplay:10.37,2013-04-14 19:20:00,
2013-04-14 15:21:00,72.8,40.4,29.87,West,267,13.8,13.8,31,0.00,,SCT,0.00,WeatherDisplay:10.37,2013-04-14 19:21:00,
2013-04-14 15:24:00,72.7,41.9,29.87,SSE,150,4.6,0.0,33,0.00,,SCT,0.00,WeatherDisplay:10.37,2013-04-14 19:24:00,
2013-04-14 15:25:00,72.7,41.9,29.87,SSE,150,0.0,0.0,33,0.00,,SCT,0.00,WeatherDisplay:10.37,2013-04-14 19:25:00,
2013-04-14 15:28:00,72.5,41.7,29.87,WSW,238,5.0,5.0,33,0.00,,SCT,0.00,WeatherDisplay:10.37,2013-04-14 19:28:00,
2013-04-14 15:33:00,72.3,40.8,29.87,South,173,11.5,11.5,32,0.00,,SCT,0.00,WeatherDisplay:10.37,2013-04-14 19:33:00,
2013-04-14 15:34:00,72.1,40.6,29.88,South,179,10.4,10.4,32,0.00,,SCT,0.00,WeatherDisplay:10.37,2013-04-14 19:34:00,
2013-04-14 15:39:00,72.0,40.5,29.88,South,191,8.1,8.1,32,0.00,,SCT,0.00,WeatherDisplay:10.37,2013-04-14 19:39:00,
2013-04-14 15:40:00,72.0,40.5,29.88,SSW,192,6.9,6.9,32,0.00,,SCT,0.00,WeatherDisplay:10.37,2013-04-14 19:40:00,
2013-04-14 15:41:00,72.0,40.5,29.88,SSW,192,4.6,4.6,32,0.00,,SCT,0.00,WeatherDisplay:10.37,2013-04-14 19:41:00,
2013-04-14 15:44:00,71.8,41.1,29.88,SSE,166,8.0,8.0,33,0.00,,SCT,0.00,WeatherDisplay:10.37,2013-04-14 19:44:00,
2013-04-14 15:46:00,71.6,39.3,29.88,South,172,11.5,11.5,31,0.00,,SCT,0.00,WeatherDisplay:10.37,2013-04-14 19:46:00,
2013-04-14 15:47:00,71.6,39.3,29.88,South,186,11.5,11.5,31,0.00,,SCT,0.00,WeatherDisplay:10.37,2013-04-14 19:47:00,
2013-04-14 15:49:00,71.5,39.3,29.88,SW,227,15.0,15.0,31,0.00,,SCT,0.00,WeatherDisplay:10.37,2013-04-14 19:49:00,
2013-04-14 15:52:00,71.3,39.1,29.88,SW,217,16.1,16.1,31,0.00,,SCT,0.00,WeatherDisplay:10.37,2013-04-14 19:52:00,
2013-04-14 15:53:00,71.3,39.1,29.88,South,172,12.7,12.7,31,0.00,,SCT,0.00,WeatherDisplay:10.37,2013-04-14 19:53:00,
2013-04-14 15:55:00,71.1,38.9,29.88,SSE,149,10.4,10.4,31,0.00,,SCT,0.00,WeatherDisplay:10.37,2013-04-14 19:55:00,
2013-04-14 15:56:00,71.1,39.7,29.87,SSW,196,10.4,10.4,32,0.00,,SCT,0.00,WeatherDisplay:10.37,2013-04-14 19:56:00,
2013-04-14 15:57:00,71.1,38.9,29.87,South,181,10.4,10.4,31,0.00,,SCT,0.00,WeatherDisplay:10.37,2013-04-14 19:57:00,
2013-04-14 15:58:00,71.1,39.7,29.88,SSE,148,11.5,11.5,32,0.00,,SCT,0.00,WeatherDisplay:10.37,2013-04-14 19:58:00,
2013-04-14 16:02:00,70.9,38.7,29.87,SW,222,9.2,9.2,31,0.00,,SCT,0.00,WeatherDisplay:10.37,2013-04-14 20:02:00,
2013-04-14 16:03:00,70.8,39.5,29.87,SSW,207,6.9,6.9,32,0.00,,SCT,0.00,WeatherDisplay:10.37,2013-04-14 20:03:00,
2013-04-14 16:04:00,70.8,39.5,29.87,South,173,4.6,4.6,32,0.00,,SCT,0.00,WeatherDisplay:10.37,2013-04-14 20:04:00,
2013-04-14 16:06:00,70.8,39.5,29.87,South,173,1.1,1.1,32,0.00,CLR,SCT,0.00,WeatherDisplay:10.37,2013-04-14 20:06:00,
2013-04-14 16:10:00,70.6,39.3,29.88,SW,234,12.0,12.0,32,0.00,CLR,SCT,0.00,WeatherDisplay:10.37,2013-04-14 20:10:00,
2013-04-14 16:13:00,70.6,38.5,29.87,South,178,9.2,9.2,31,0.00,CLR,SCT,0.00,WeatherDisplay:10.37,2013-04-14 20:13:00,
2013-04-14 16:14:00,70.6,37.6,29.88,SW,221,13.8,13.8,30,0.00,CLR,SCT,0.00,WeatherDisplay:10.37,2013-04-14 20:14:00,
2013-04-14 16:17:00,70.4,37.5,29.88,SSW,212,20.7,20.7,30,0.00,CLR,SCT,0.00,WeatherDisplay:10.37,2013-04-14 20:17:00,
2013-04-14 16:20:00,70.4,38.3,29.88,SSE,165,9.2,9.2,31,0.00,CLR,SCT,0.00,WeatherDisplay:10.37,2013-04-14 20:20:00,
2013-04-14 16:21:00,70.4,38.3,29.88,SSE,164,13.0,13.0,31,0.00,CLR,SCT,0.00,WeatherDisplay:10.37,2013-04-14 20:21:00,
2013-04-14 16:25:00,70.3,37.4,29.88,SSE,153,17.3,17.3,30,0.00,CLR,SCT,0.00,WeatherDisplay:10.37,2013-04-14 20:25:00,
2013-04-14 16:26:00,70.3,36.5,29.88,SSE,153,19.6,19.6,29,0.00,CLR,SCT,0.00,WeatherDisplay:10.37,2013-04-14 20:26:00,
2013-04-14 16:27:00,70.3,36.5,29.88,SE,136,16.1,16.1,29,0.00,CLR,SCT,0.00,WeatherDisplay:10.37,2013-04-14 20:27:00,
2013-04-14 16:32:00,69.9,37.9,29.87,South,185,12.7,12.7,31,0.00,CLR,SCT,0.00,WeatherDisplay:10.37,2013-04-14 20:32:00,
2013-04-14 16:33:00,69.9,37.0,29.88,SSW,203,10.4,10.4,30,0.00,CLR,SCT,0.00,WeatherDisplay:10.37,2013-04-14 20:33:00,
2013-04-14 16:37:00,69.9,37.9,29.87,SSW,204,10.0,10.0,31,0.00,CLR,SCT,0.00,WeatherDisplay:10.37,2013-04-14 20:37:00,
2013-04-14 16:39:00,69.8,37.8,29.87,South,171,16.1,16.1,31,0.00,CLR,SCT,0.00,WeatherDisplay:10.37,2013-04-14 20:39:00,
2013-04-14 16:43:00,69.6,37.6,29.88,SW,227,15.0,15.0,31,0.00,CLR,SCT,0.00,WeatherDisplay:10.37,2013-04-14 20:43:00,
2013-04-14 16:44:00,69.6,37.6,29.88,SW,232,15.0,15.0,31,0.00,CLR,SCT,0.00,WeatherDisplay:10.37,2013-04-14 20:44:00,
2013-04-14 16:47:00,69.6,36.8,29.88,SSW,200,8.1,8.1,30,0.00,CLR,SCT,0.00,WeatherDisplay:10.37,2013-04-14 20:47:00,
2013-04-14 16:51:00,69.4,37.4,29.88,SSE,155,16.1,16.1,31,0.00,CLR,SCT,0.00,WeatherDisplay:10.37,2013-04-14 20:51:00,
2013-04-14 16:52:00,69.4,36.6,29.89,SSE,165,13.8,13.8,30,0.00,CLR,SCT,0.00,WeatherDisplay:10.37,2013-04-14 20:52:00,
2013-04-14 16:56:00,69.4,37.4,29.89,SSE,156,5.8,5.8,31,0.00,CLR,SCT,0.00,WeatherDisplay:10.37,2013-04-14 20:56:00,
2013-04-14 16:58:00,69.4,37.4,29.89,South,186,6.9,6.9,31,0.00,CLR,SCT,0.00,WeatherDisplay:10.37,2013-04-14 20:58:00,
2013-04-14 16:59:00,69.4,37.4,29.89,South,187,5.8,5.8,31,0.00,CLR,SCT,0.00,WeatherDisplay:10.37,2013-04-14 20:59:00,
2013-04-14 17:03:00,69.4,37.4,29.88,West,263,8.1,8.1,31,0.00,CLR,SCT,0.00,WeatherDisplay:10.37,2013-04-14 21:03:00,
2013-04-14 17:05:00,69.3,37.3,29.88,SSW,210,6.9,6.9,31,0.00,CLR,SCT,0.00,WeatherDisplay:10.37,2013-04-14 21:05:00,
2013-04-14 17:07:00,69.3,37.3,29.88,SSW,211,2.3,2.3,31,0.00,CLR,SCT,0.00,WeatherDisplay:10.37,2013-04-14 21:07:00,
2013-04-14 17:08:00,69.3,37.3,29.88,WSW,254,3.5,3.5,31,0.00,CLR,SCT,0.00,WeatherDisplay:10.37,2013-04-14 21:08:00,
2013-04-14 17:10:00,69.3,37.3,29.88,South,176,7.0,7.0,31,0.00,CLR,SCT,0.00,WeatherDisplay:10.37,2013-04-14 21:10:00,
2013-04-14 17:13:00,69.1,38.0,29.87,SSW,209,7.0,7.0,32,0.00,CLR,SCT,0.00,WeatherDisplay:10.37,2013-04-14 21:13:00,
2013-04-14 17:15:00,69.1,38.0,29.87,South,184,6.0,7.1,32,0.00,CLR,SCT,0.00,WeatherDisplay:10.37,2013-04-14 21:15:00,
2013-04-14 17:17:00,68.9,37.0,29.87,West,276,15.0,15.0,31,0.00,CLR,SCT,0.00,WeatherDisplay:10.37,2013-04-14 21:17:00,
2013-04-14 17:18:00,68.9,37.0,29.87,SW,229,11.5,11.5,31,0.00,CLR,SCT,0.00,WeatherDisplay:10.37,2013-04-14 21:18:00,
2013-04-14 17:22:00,68.9,37.8,29.87,SSW,192,18.4,18.4,32,0.00,CLR,SCT,0.00,WeatherDisplay:10.37,2013-04-14 21:22:00,
2013-04-14 17:23:00,68.9,37.0,29.87,South,191,17.3,17.3,31,0.00,CLR,SCT,0.00,WeatherDisplay:10.37,2013-04-14 21:23:00,
2013-04-14 17:26:00,68.8,37.7,29.87,SSW,207,17.3,17.3,32,0.00,CLR,SCT,0.00,WeatherDisplay:10.37,2013-04-14 21:26:00,
2013-04-14 17:28:00,68.8,37.7,29.87,SSE,158,20.7,20.7,32,0.00,CLR,SCT,0.00,WeatherDisplay:10.37,2013-04-14 21:28:00,
2013-04-14 17:31:00,68.8,37.7,29.87,SSE,155,11.5,11.5,32,0.00,CLR,SCT,0.00,WeatherDisplay:10.37,2013-04-14 21:31:00,
2013-04-14 17:35:00,68.8,37.7,29.86,SE,140,15.0,15.0,32,0.00,CLR,SCT,0.00,WeatherDisplay:10.37,2013-04-14 21:35:00,
2013-04-14 17:37:00,68.8,37.7,29.87,SE,137,19.6,19.6,32,0.00,CLR,SCT,0.00,WeatherDisplay:10.37,2013-04-14 21:37:00,
2013-04-14 17:40:00,68.8,37.7,29.87,SE,140,15.0,15.0,32,0.00,CLR,SCT,0.00,WeatherDisplay:10.37,2013-04-14 21:40:00,
2013-04-14 17:41:00,68.6,37.5,29.87,SSE,155,15.0,15.0,32,0.00,CLR,SCT,0.00,WeatherDisplay:10.37,2013-04-14 21:41:00,
2013-04-14 17:42:00,68.6,37.5,29.87,SSE,159,15.0,15.0,32,0.00,CLR,SCT,0.00,WeatherDisplay:10.37,2013-04-14 21:42:00,
2013-04-14 17:44:00,68.6,37.5,29.87,South,178,16.1,16.1,32,0.00,CLR,SCT,0.00,WeatherDisplay:10.37,2013-04-14 21:44:00,
2013-04-14 17:49:00,68.6,37.5,29.87,South,182,19.6,19.6,32,0.00,CLR,SCT,0.00,WeatherDisplay:10.37,2013-04-14 21:49:00,
2013-04-14 17:51:00,68.6,36.7,29.86,South,183,21.9,21.9,31,0.00,CLR,SCT,0.00,WeatherDisplay:10.37,2013-04-14 21:51:00,
2013-04-14 17:55:00,68.6,36.7,29.86,South,186,12.7,12.7,31,0.00,CLR,SCT,0.00,WeatherDisplay:10.37,2013-04-14 21:55:00,
2013-04-14 17:58:00,68.6,37.5,29.87,South,174,10.4,10.4,32,0.00,CLR,SCT,0.00,WeatherDisplay:10.37,2013-04-14 21:58:00,
2013-04-14 17:59:00,68.4,36.6,29.86,SSE,162,19.6,19.6,31,0.00,CLR,SCT,0.00,WeatherDisplay:10.37,2013-04-14 21:59:00,
2013-04-14 18:00:00,68.4,36.6,29.87,SSE,167,19.6,19.6,31,0.00,CLR,SCT,0.00,WeatherDisplay:10.37,2013-04-14 22:00:00,
2013-04-14 18:01:00,68.4,37.4,29.88,SSE,151,21.9,21.9,32,0.00,CLR,SCT,0.00,WeatherDisplay:10.37,2013-04-14 22:01:00,
2013-04-14 18:04:00,68.4,37.4,29.88,SSE,156,15.0,15.0,32,0.00,CLR,SCT,0.00,WeatherDisplay:10.37,2013-04-14 22:04:00,
2013-04-14 18:07:00,68.4,37.4,29.87,SSE,156,5.8,5.8,32,0.00,CLR,SCT,0.00,WeatherDisplay:10.37,2013-04-14 22:07:00,
2013-04-14 18:09:00,68.3,37.3,29.87,South,189,12.0,12.0,32,0.00,CLR,SCT,0.00,WeatherDisplay:10.37,2013-04-14 22:09:00,
2013-04-14 18:10:00,68.3,37.3,29.87,SE,137,11.5,11.5,32,0.00,CLR,SCT,0.00,WeatherDisplay:10.37,2013-04-14 22:10:00,
2013-04-14 18:14:00,68.1,37.1,29.87,SSE,151,11.5,11.5,32,0.00,CLR,SCT,0.00,WeatherDisplay:10.37,2013-04-14 22:14:00,
2013-04-14 18:18:00,68.1,37.1,29.87,SE,142,9.0,9.0,32,0.00,CLR,SCT,0.00,WeatherDisplay:10.37,2013-04-14 22:18:00,
2013-04-14 18:19:00,68.1,37.1,29.87,South,172,10.0,10.0,32,0.00,CLR,SCT,0.00,WeatherDisplay:10.37,2013-04-14 22:19:00,
2013-04-14 18:21:00,68.1,37.1,29.87,SE,131,11.5,11.5,32,0.00,CLR,SCT,0.00,WeatherDisplay:10.37,2013-04-14 22:21:00,
2013-04-14 18:23:00,67.9,36.9,29.87,SSE,155,12.7,12.7,32,0.00,CLR,SCT,0.00,WeatherDisplay:10.37,2013-04-14 22:23:00,
2013-04-14 18:27:00,67.9,37.7,29.88,South,180,13.8,13.8,33,0.00,CLR,SCT,0.00,WeatherDisplay:10.37,2013-04-14 22:27:00,
2013-04-14 18:28:00,67.9,37.7,29.88,SSE,150,24.0,24.0,33,0.00,CLR,SCT,0.00,WeatherDisplay:10.37,2013-04-14 22:28:00,
2013-04-14 18:30:00,67.8,37.6,29.88,SSE,153,24.2,24.2,33,0.00,CLR,SCT,0.00,WeatherDisplay:10.37,2013-04-14 22:30:00,
2013-04-14 18:33:00,67.6,38.2,29.88,South,170,23.0,23.0,34,0.00,CLR,SCT,0.00,WeatherDisplay:10.37,2013-04-14 22:33:00,
2013-04-14 18:35:00,67.4,37.3,29.87,East,91,15.0,15.0,33,0.00,CLR,SCT,0.00,WeatherDisplay:10.37,2013-04-14 22:35:00,
2013-04-14 18:36:00,67.4,37.3,29.88,SE,144,17.3,17.3,33,0.00,CLR,SCT,0.00,WeatherDisplay:10.37,2013-04-14 22:36:00,
2013-04-14 18:38:00,67.3,38.0,29.88,SE,146,17.3,17.3,34,0.00,CLR,SCT,0.00,WeatherDisplay:10.37,2013-04-14 22:38:00,
2013-04-14 18:43:00,66.9,36.8,29.87,East,94,10.0,10.0,33,0.00,CLR,SCT,0.00,WeatherDisplay:10.37,2013-04-14 22:43:00,
2013-04-14 18:45:00,66.9,37.6,29.87,ESE,109,12.7,12.7,34,0.00,CLR,SCT,0.00,WeatherDisplay:10.37,2013-04-14 22:45:00,
2013-04-14 18:47:00,66.9,37.6,29.87,East,91,12.7,12.7,34,0.00,CLR,SCT,0.00,WeatherDisplay:10.37,2013-04-14 22:47:00,
2013-04-14 18:50:00,66.8,38.3,29.86,East,90,11.5,11.5,35,0.00,CLR,SCT,0.00,WeatherDisplay:10.37,2013-04-14 22:50:00,
2013-04-14 18:54:00,66.3,38.5,29.86,East,90,6.9,6.9,36,0.00,CLR,SCT,0.00,WeatherDisplay:10.37,2013-04-14 22:54:00,
2013-04-14 18:55:00,66.3,37.8,29.86,East,90,4.6,4.6,35,0.00,CLR,SCT,0.00,WeatherDisplay:10.37,2013-04-14 22:55:00,
2013-04-14 18:56:00,66.1,37.6,29.86,East,90,5.8,5.8,35,0.00,CLR,SCT,0.00,WeatherDisplay:10.37,2013-04-14 22:56:00,
2013-04-14 19:00:00,66.0,37.5,29.86,East,99,10.0,10.0,35,0.00,CLR,SCT,0.00,WeatherDisplay:10.37,2013-04-14 23:00:00,
2013-04-14 19:01:00,66.0,37.5,29.86,East,94,11.5,11.5,35,0.00,CLR,SCT,0.00,WeatherDisplay:10.37,2013-04-14 23:01:00,
2013-04-14 19:03:00,66.1,36.9,29.86,ESE,112,10.4,10.4,34,0.00,CLR,SCT,0.00,WeatherDisplay:10.37,2013-04-14 23:03:00,
2013-04-14 19:07:00,66.1,37.6,29.86,ESE,109,4.6,0.0,35,0.00,CLR,SCT,0.00,WeatherDisplay:10.37,2013-04-14 23:07:00,
2013-04-14 19:08:00,66.1,37.6,29.85,ESE,109,0.0,0.0,35,0.00,CLR,SCT,0.00,WeatherDisplay:10.37,2013-04-14 23:08:00,
2013-04-14 19:09:00,66.1,37.6,29.86,ESE,109,0.0,0.0,35,0.00,CLR,SCT,0.00,WeatherDisplay:10.37,2013-04-14 23:09:00,
2013-04-14 19:13:00,66.0,37.5,29.86,ESE,109,0.0,0.0,35,0.00,CLR,SCT,0.00,WeatherDisplay:10.37,2013-04-14 23:13:00,
2013-04-14 19:14:00,66.0,37.5,29.86,ESE,109,0.0,0.0,35,0.00,CLR,SCT,0.00,WeatherDisplay:10.37,2013-04-14 23:14:00,
2013-04-14 19:17:00,65.8,37.4,29.85,East,101,6.9,6.9,35,0.00,CLR,SCT,0.00,WeatherDisplay:10.37,2013-04-14 23:17:00,
2013-04-14 19:18:00,65.6,37.9,29.85,East,101,4.6,4.6,36,0.00,CLR,SCT,0.00,WeatherDisplay:10.37,2013-04-14 23:18:00,
2013-04-14 19:19:00,65.6,37.9,29.86,East,101,4.6,4.6,36,0.00,CLR,SCT,0.00,WeatherDisplay:10.37,2013-04-14 23:19:00,
2013-04-14 19:22:00,65.6,37.9,29.85,East,101,3.5,3.6,36,0.00,CLR,SCT,0.00,WeatherDisplay:10.37,2013-04-14 23:22:00,
2013-04-14 19:24:00,65.5,37.8,29.85,East,101,3.5,3.5,36,0.00,CLR,SCT,0.00,WeatherDisplay:10.37,2013-04-14 23:24:00,
2013-04-14 19:25:00,65.5,37.8,29.85,East,101,3.5,3.5,36,0.00,CLR,SCT,0.00,WeatherDisplay:10.37,2013-04-14 23:25:00,
2013-04-14 19:27:00,65.3,37.6,29.85,East,101,3.5,3.5,36,0.00,CLR,SCT,0.00,WeatherDisplay:10.37,2013-04-14 23:27:00,
2013-04-14 19:28:00,65.3,37.6,29.85,East,101,3.5,3.5,36,0.00,CLR,SCT,0.00,WeatherDisplay:10.37,2013-04-14 23:28:00,
2013-04-14 19:30:00,65.3,37.6,29.85,East,101,0.0,0.0,36,0.00,CLR,SCT,0.00,WeatherDisplay:10.37,2013-04-14 23:30:00,
2013-04-14 19:32:00,65.3,37.6,29.85,East,101,0.0,0.0,36,0.00,CLR,SCT,0.00,WeatherDisplay:10.37,2013-04-14 23:32:00,
2013-04-14 19:35:00,65.2,38.3,29.85,East,101,0.0,0.0,37,0.00,CLR,SCT,0.00,WeatherDisplay:10.37,2013-04-14 23:35:00,
2013-04-14 19:37:00,65.0,38.1,29.85,East,101,0.0,0.0,37,0.00,CLR,SCT,0.00,WeatherDisplay:10.37,2013-04-14 23:37:00,
2013-04-14 19:40:00,64.8,38.6,29.85,East,101,0.0,0.0,38,0.00,CLR,SCT,0.00,WeatherDisplay:10.37,2013-04-14 23:40:00,
2013-04-14 19:41:00,64.8,38.6,29.85,East,101,0.0,0.0,38,0.00,CLR,SCT,0.00,WeatherDisplay:10.37,2013-04-14 23:41:00,
2013-04-14 19:42:00,64.7,38.5,29.85,East,101,0.0,0.0,38,0.00,CLR,SCT,0.00,WeatherDisplay:10.37,2013-04-14 23:42:00,
2013-04-14 19:44:00,64.5,38.3,29.85,East,101,0.0,0.0,38,0.00,CLR,SCT,0.00,WeatherDisplay:10.37,2013-04-14 23:44:00,
2013-04-14 19:47:00,64.3,38.1,29.85,East,101,0.0,0.0,38,0.00,CLR,SCT,0.00,WeatherDisplay:10.37,2013-04-14 23:47:00,
2013-04-14 19:49:00,64.2,38.0,29.85,East,101,0.0,0.0,38,0.00,CLR,SCT,0.00,WeatherDisplay:10.37,2013-04-14 23:49:00,
2013-04-14 19:52:00,64.0,38.5,29.85,East,101,0.0,0.0,39,0.00,CLR,SCT,0.00,WeatherDisplay:10.37,2013-04-14 23:52:00,
2013-04-14 19:54:00,63.9,38.4,29.85,East,99,0.0,0.0,39,0.00,CLR,SCT,0.00,WeatherDisplay:10.37,2013-04-14 23:54:00,
2013-04-14 19:57:00,63.7,38.9,29.85,East,99,4.6,4.6,40,0.00,CLR,SCT,0.00,WeatherDisplay:10.37,2013-04-14 23:57:00,
2013-04-14 20:02:00,63.5,38.7,29.85,East,96,15.0,15.0,40,0.00,CLR,SCT,0.00,WeatherDisplay:10.37,2013-04-15 00:02:00,
2013-04-14 20:07:00,64.2,38.7,29.84,ESE,123,10.4,10.4,39,0.00,CLR,SCT,0.00,WeatherDisplay:10.37,2013-04-15 00:07:00,
2013-04-14 20:09:00,64.5,39.0,29.84,ESE,115,10.4,10.4,39,0.00,CLR,SCT,0.00,WeatherDisplay:10.37,2013-04-15 00:09:00,
2013-04-14 20:11:00,64.8,39.2,29.83,East,101,6.9,6.9,39,0.00,CLR,SCT,0.00,WeatherDisplay:10.37,2013-04-15 00:11:00,
2013-04-14 20:14:00,65.3,39.7,29.83,ESE,105,6.9,6.9,39,0.00,CLR,SCT,0.00,WeatherDisplay:10.37,2013-04-15 00:14:00,
2013-04-14 20:15:00,65.3,39.0,29.83,ESE,105,10.4,10.4,38,0.00,CLR,SCT,0.00,WeatherDisplay:10.37,2013-04-15 00:15:00,
2013-04-14 20:17:00,65.5,39.2,29.83,ESE,103,9.2,9.2,38,0.00,CLR,SCT,0.00,WeatherDisplay:10.37,2013-04-15 00:17:00,
2013-04-14 20:20:00,65.6,39.3,29.83,ESE,103,5.8,5.8,38,0.00,CLR,SCT,0.00,WeatherDisplay:10.37,2013-04-15 00:20:00,
2013-04-14 20:22:00,65.6,39.3,29.83,ESE,103,4.6,4.6,38,0.00,CLR,SCT,0.00,WeatherDisplay:10.37,2013-04-15 00:22:00,
2013-04-14 20:23:00,65.6,39.3,29.83,ESE,103,5.0,5.0,38,0.00,CLR,SCT,0.00,WeatherDisplay:10.37,2013-04-15 00:23:00,
2013-04-14 20:27:00,65.6,39.3,29.83,ESE,103,4.6,0.0,38,0.00,CLR,SCT,0.00,WeatherDisplay:10.37,2013-04-15 00:27:00,
2013-04-14 20:28:00,65.6,39.3,29.83,ESE,103,0.0,0.0,38,0.00,CLR,SCT,0.00,WeatherDisplay:10.37,2013-04-15 00:28:00,
2013-04-14 20:29:00,65.6,39.3,29.83,ESE,103,0.0,0.0,38,0.00,CLR,SCT,0.00,WeatherDisplay:10.37,2013-04-15 00:29:00,
2013-04-14 20:31:00,65.6,39.3,29.83,ESE,103,0.0,0.0,38,0.00,CLR,SCT,0.00,WeatherDisplay:10.37,2013-04-15 00:31:00,
2013-04-14 20:33:00,65.6,40.0,29.83,ESE,103,0.0,0.0,39,0.00,CLR,SCT,0.00,WeatherDisplay:10.37,2013-04-15 00:33:00,
2013-04-14 20:34:00,65.6,40.0,29.83,ESE,103,0.0,0.0,39,0.00,CLR,SCT,0.00,WeatherDisplay:10.37,2013-04-15 00:34:00,
2013-04-14 20:38:00,65.5,39.9,29.83,ESE,103,0.0,0.0,39,0.00,,SCT,0.00,WeatherDisplay:10.37,2013-04-15 00:38:00,
2013-04-14 20:42:00,65.2,39.6,29.83,ESE,123,5.0,5.0,39,0.00,,SCT,0.00,WeatherDisplay:10.37,2013-04-15 00:42:00,
2013-04-14 20:43:00,65.2,39.6,29.83,ESE,123,4.6,4.6,39,0.00,,SCT,0.00,WeatherDisplay:10.37,2013-04-15 00:43:00,
2013-04-14 20:44:00,65.2,39.6,29.83,ESE,123,3.5,0.0,39,0.00,,SCT,0.00,WeatherDisplay:10.37,2013-04-15 00:44:00,
2013-04-14 20:47:00,65.0,39.4,29.83,ESE,123,0.0,0.0,39,0.00,,SCT,0.00,WeatherDisplay:10.37,2013-04-15 00:47:00,
2013-04-14 20:49:00,65.0,39.4,29.84,ESE,123,0.0,0.0,39,0.00,,SCT,0.00,WeatherDisplay:10.37,2013-04-15 00:49:00,
2013-04-14 20:50:00,64.8,39.2,29.84,ESE,123,0.0,0.0,39,0.00,,SCT,0.00,WeatherDisplay:10.37,2013-04-15 00:50:00,
2013-04-14 20:52:00,64.8,39.2,29.84,ESE,123,2.0,2.0,39,0.00,,SCT,0.00,WeatherDisplay:10.37,2013-04-15 00:52:00,
2013-04-14 20:53:00,64.7,39.2,29.84,ESE,123,3.5,3.5,39,0.00,,SCT,0.00,WeatherDisplay:10.37,2013-04-15 00:53:00,
2013-04-14 20:54:00,64.7,39.2,29.84,ESE,123,3.5,3.5,39,0.00,,SCT,0.00,WeatherDisplay:10.37,2013-04-15 00:54:00,
2013-04-14 20:55:00,64.7,39.2,29.84,ESE,123,3.5,0.0,39,0.00,,SCT,0.00,WeatherDisplay:10.37,2013-04-15 00:55:00,
2013-04-14 20:58:00,64.5,39.0,29.84,ESE,123,1.1,1.1,39,0.00,,SCT,0.00,WeatherDisplay:10.37,2013-04-15 00:58:00,
2013-04-14 21:00:00,64.5,39.0,29.84,ESE,123,5.8,5.8,39,0.00,,SCT,0.00,WeatherDisplay:10.37,2013-04-15 01:00:00,
2013-04-14 21:02:00,64.5,39.0,29.85,ESE,123,5.0,5.0,39,0.00,,SCT,0.00,WeatherDisplay:10.37,2013-04-15 01:02:00,
2013-04-14 21:03:00,64.5,39.0,29.85,ESE,123,5.8,5.8,39,0.00,,SCT,0.00,WeatherDisplay:10.37,2013-04-15 01:03:00,
2013-04-14 21:05:00,64.7,39.8,29.84,ESE,123,0.0,0.0,40,0.00,,SCT,0.00,WeatherDisplay:10.37,2013-04-15 01:05:00,
2013-04-14 21:07:00,64.5,39.0,29.83,ESE,123,0.0,0.0,39,0.00,,SCT,0.00,WeatherDisplay:10.37,2013-04-15 01:07:00,
2013-04-14 21:08:00,64.5,39.6,29.84,ESE,123,3.5,3.5,40,0.00,,SCT,0.00,WeatherDisplay:10.37,2013-04-15 01:08:00,
2013-04-14 21:13:00,64.3,40.1,29.84,East,95,5.8,5.8,41,0.00,,SCT,0.00,WeatherDisplay:10.37,2013-04-15 01:13:00,
2013-04-14 21:15:00,64.3,40.1,29.84,East,95,0.0,0.0,41,0.00,,SCT,0.00,WeatherDisplay:10.37,2013-04-15 01:15:00,
2013-04-14 21:17:00,64.2,40.0,29.84,East,95,0.0,0.0,41,0.00,,SCT,0.00,WeatherDisplay:10.37,2013-04-15 01:17:00,
2013-04-14 21:19:00,64.2,39.4,29.84,South,177,2.0,2.0,40,0.00,,SCT,0.00,WeatherDisplay:10.37,2013-04-15 01:19:00,
2013-04-14 21:22:00,64.2,39.4,29.84,South,177,0.0,0.0,40,0.00,,SCT,0.00,WeatherDisplay:10.37,2013-04-15 01:22:00,
2013-04-14 21:24:00,64.2,39.4,29.84,SE,131,10.4,10.4,40,0.00,,SCT,0.00,WeatherDisplay:10.37,2013-04-15 01:24:00,
2013-04-14 21:25:00,64.3,39.4,29.84,SE,131,5.8,5.8,40,0.00,,SCT,0.00,WeatherDisplay:10.37,2013-04-15 01:25:00,
2013-04-14 21:26:00,64.3,39.4,29.84,SE,131,4.6,4.6,40,0.00,,SCT,0.00,WeatherDisplay:10.37,2013-04-15 01:26:00,
2013-04-14 21:30:00,64.5,39.6,29.84,SE,131,0.0,0.0,40,0.00,,SCT,0.00,WeatherDisplay:10.37,2013-04-15 01:30:00,
2013-04-14 21:33:00,64.7,39.8,29.84,SE,136,2.3,2.3,40,0.00,,SCT,0.00,WeatherDisplay:10.37,2013-04-15 01:33:00,
2013-04-14 21:36:00,64.7,39.8,29.84,SE,136,0.0,0.0,40,0.00,,SCT,0.00,WeatherDisplay:10.37,2013-04-15 01:36:00,
2013-04-14 21:38:00,64.7,39.8,29.84,SE,136,0.0,0.0,40,0.00,,SCT,0.00,WeatherDisplay:10.37,2013-04-15 01:38:00,
2013-04-14 21:39:00,64.5,39.6,29.84,SE,136,0.0,0.0,40,0.00,,SCT,0.00,WeatherDisplay:10.37,2013-04-15 01:39:00,
2013-04-14 21:41:00,64.5,39.6,29.84,SE,136,0.0,0.0,40,0.00,,SCT,0.00,WeatherDisplay:10.37,2013-04-15 01:41:00,
2013-04-14 21:44:00,64.5,40.3,29.84,SE,136,0.0,0.0,41,0.00,,SCT,0.00,WeatherDisplay:10.37,2013-04-15 01:44:00,
2013-04-14 21:46:00,64.3,40.7,29.84,SE,136,0.0,0.0,42,0.00,,SCT,0.00,WeatherDisplay:10.37,2013-04-15 01:46:00,
2013-04-14 21:48:00,64.2,40.6,29.85,SE,136,0.0,0.0,42,0.00,,SCT,0.00,WeatherDisplay:10.37,2013-04-15 01:48:00,
2013-04-14 21:50:00,64.0,41.0,29.85,SE,136,0.0,0.0,43,0.00,,SCT,0.00,WeatherDisplay:10.37,2013-04-15 01:50:00,
2013-04-14 21:55:00,63.5,41.2,29.85,SE,136,0.0,0.0,44,0.00,,SCT,0.00,WeatherDisplay:10.37,2013-04-15 01:55:00,
2013-04-14 21:58:00,63.1,41.4,29.85,SE,136,0.0,0.0,45,0.00,,SCT,0.00,WeatherDisplay:10.37,2013-04-15 01:58:00,
2013-04-14 22:01:00,62.7,41.6,29.85,SE,136,0.0,0.0,46,0.00,,SCT,0.00,WeatherDisplay:10.37,2013-04-15 02:01:00,
2013-04-14 22:02:00,62.6,41.5,29.86,SE,136,0.0,0.0,46,0.00,,SCT,0.00,WeatherDisplay:10.37,2013-04-15 02:02:00,
2013-04-14 22:03:00,62.4,41.3,29.86,SE,136,0.0,0.0,46,0.00,,SCT,0.00,WeatherDisplay:10.37,2013-04-15 02:03:00,
2013-04-14 22:06:00,62.1,41.6,29.85,SE,136,0.0,0.0,47,0.00,,SCT,0.00,WeatherDisplay:10.37,2013-04-15 02:06:00,
2013-04-14 22:07:00,62.0,42.1,29.85,SE,136,0.0,0.0,48,0.00,,SCT,0.00,WeatherDisplay:10.37,2013-04-15 02:07:00,
2013-04-14 22:10:00,61.6,42.2,29.86,SE,136,0.0,0.0,49,0.00,,SCT,0.00,WeatherDisplay:10.37,2013-04-15 02:10:00,
2013-04-14 22:14:00,61.2,41.9,29.86,SE,136,0.0,0.0,49,0.00,,SCT,0.00,WeatherDisplay:10.37,2013-04-15 02:14:00,
2013-04-14 22:15:00,61.0,41.2,29.86,SE,136,0.0,0.0,48,0.00,,SCT,0.00,WeatherDisplay:10.37,2013-04-15 02:15:00,
2013-04-14 22:20:00,60.5,41.8,29.86,SE,136,0.0,0.0,50,0.00,,SCT,0.00,WeatherDisplay:10.37,2013-04-15 02:20:00,
2013-04-14 22:21:00,60.5,41.8,29.86,SE,136,0.0,0.0,50,0.00,,SCT,0.00,WeatherDisplay:10.37,2013-04-15 02:21:00,
2013-04-14 22:22:00,60.4,41.7,29.86,SE,136,0.0,0.0,50,0.00,,SCT,0.00,WeatherDisplay:10.37,2013-04-15 02:22:00,
2013-04-14 22:27:00,60.1,41.9,29.87,SE,136,0.0,0.0,51,0.00,,SCT,0.00,WeatherDisplay:10.37,2013-04-15 02:27:00,
2013-04-14 22:28:00,60.1,41.9,29.87,SE,136,0.0,0.0,51,0.00,,SCT,0.00,WeatherDisplay:10.37,2013-04-15 02:28:00,
2013-04-14 22:31:00,59.9,41.7,29.87,SE,136,0.0,0.0,51,0.00,,SCT,0.00,WeatherDisplay:10.37,2013-04-15 02:31:00,
2013-04-14 22:33:00,59.8,41.6,29.87,SE,136,0.0,0.0,51,0.00,,SCT,0.00,WeatherDisplay:10.37,2013-04-15 02:33:00,
2013-04-14 22:36:00,59.8,42.1,29.87,SE,136,0.0,0.0,52,0.00,,SCT,0.00,WeatherDisplay:10.37,2013-04-15 02:36:00,
2013-04-14 22:38:00,59.6,42.4,29.87,SE,136,0.0,0.0,53,0.00,,SCT,0.00,WeatherDisplay:10.37,2013-04-15 02:38:00,
2013-04-14 22:39:00,59.6,42.4,29.87,SE,136,0.0,0.0,53,0.00,,SCT,0.00,WeatherDisplay:10.37,2013-04-15 02:39:00,
2013-04-14 22:44:00,59.5,41.9,29.87,SE,136,0.0,0.0,52,0.00,,SCT,0.00,WeatherDisplay:10.37,2013-04-15 02:44:00,
2013-04-14 22:45:00,59.5,41.9,29.87,SE,136,0.0,0.0,52,0.00,,SCT,0.00,WeatherDisplay:10.37,2013-04-15 02:45:00,
2013-04-14 22:50:00,59.5,42.8,29.87,SE,136,0.0,0.0,54,0.00,,SCT,0.00,WeatherDisplay:10.37,2013-04-15 02:50:00,
2013-04-14 22:51:00,59.5,42.8,29.87,SE,136,0.0,0.0,54,0.00,,SCT,0.00,WeatherDisplay:10.37,2013-04-15 02:51:00,
2013-04-14 22:55:00,59.3,42.6,29.87,SE,136,0.0,0.0,54,0.00,,SCT,0.00,WeatherDisplay:10.37,2013-04-15 02:55:00,
2013-04-14 22:56:00,59.3,43.1,29.87,SE,136,0.0,0.0,55,0.00,,SCT,0.00,WeatherDisplay:10.37,2013-04-15 02:56:00,
2013-04-14 22:59:00,59.2,42.6,29.87,SE,136,0.0,0.0,54,0.00,,SCT,0.00,WeatherDisplay:10.37,2013-04-15 02:59:00,
2013-04-14 23:01:00,59.0,42.8,29.87,SE,136,0.0,0.0,55,0.00,,SCT,0.00,WeatherDisplay:10.37,2013-04-15 03:01:00,
2013-04-14 23:02:00,58.9,42.8,29.87,SE,136,0.0,0.0,55,0.00,,SCT,0.00,WeatherDisplay:10.37,2013-04-15 03:02:00,
2013-04-14 23:06:00,58.7,43.0,29.86,SE,136,0.0,0.0,56,0.00,,SCT,0.00,WeatherDisplay:10.37,2013-04-15 03:06:00,
2013-04-14 23:07:00,58.6,42.9,29.86,SE,136,0.0,0.0,56,0.00,,SCT,0.00,WeatherDisplay:10.37,2013-04-15 03:07:00,
2013-04-14 23:08:00,58.6,42.9,29.86,SE,136,0.0,0.0,56,0.00,,SCT,0.00,WeatherDisplay:10.37,2013-04-15 03:08:00,
2013-04-14 23:11:00,58.4,43.2,29.86,SE,136,0.0,0.0,57,0.00,,SCT,0.00,WeatherDisplay:10.37,2013-04-15 03:11:00,
2013-04-14 23:12:00,58.3,43.1,29.86,SE,136,0.0,0.0,57,0.00,,SCT,0.00,WeatherDisplay:10.37,2013-04-15 03:12:00,
2013-04-14 23:13:00,58.3,43.1,29.86,SE,136,0.0,0.0,57,0.00,,SCT,0.00,WeatherDisplay:10.37,2013-04-15 03:13:00,
2013-04-14 23:14:00,58.3,43.1,29.86,SE,136,0.0,0.0,57,0.00,,SCT,0.01,WeatherDisplay:10.37,2013-04-15 03:14:00,
2013-04-14 23:19:00,58.1,43.8,29.86,SE,136,0.0,0.0,59,0.01,RA,SCT,0.01,WeatherDisplay:10.37,2013-04-15 03:19:00,
2013-04-14 23:21:00,58.0,43.3,29.87,SE,136,0.0,0.0,58,0.01,RA,SCT,0.01,WeatherDisplay:10.37,2013-04-15 03:21:00,
2013-04-14 23:24:00,57.8,43.6,29.87,SE,136,5.8,5.8,59,0.01,RA,SCT,0.01,WeatherDisplay:10.37,2013-04-15 03:24:00,
2013-04-14 23:29:00,57.6,43.8,29.86,SE,136,0.0,0.0,60,0.01,,SCT,0.01,WeatherDisplay:10.37,2013-04-15 03:29:00,
2013-04-14 23:30:00,57.5,44.1,29.87,SE,136,0.0,0.0,61,0.01,,SCT,0.01,WeatherDisplay:10.37,2013-04-15 03:30:00,
2013-04-14 23:31:00,57.5,44.1,29.87,SE,136,0.0,0.0,61,0.01,,SCT,0.01,WeatherDisplay:10.37,2013-04-15 03:31:00,
2013-04-14 23:35:00,57.3,44.4,29.87,SE,136,0.0,0.0,62,0.01,,SCT,0.01,WeatherDisplay:10.37,2013-04-15 03:35:00,
2013-04-14 23:36:00,57.2,44.3,29.87,SE,136,0.0,0.0,62,0.01,,SCT,0.01,WeatherDisplay:10.37,2013-04-15 03:36:00,
2013-04-14 23:40:00,57.0,44.1,29.87,SE,136,0.0,0.0,62,0.01,,SCT,0.01,WeatherDisplay:10.37,2013-04-15 03:40:00,
2013-04-14 23:41:00,57.0,44.1,29.86,SE,136,0.0,0.0,62,0.01,,SCT,0.01,WeatherDisplay:10.37,2013-04-15 03:41:00,
2013-04-14 23:44:00,56.9,44.4,29.86,NE,49,4.6,4.6,63,0.01,,SCT,0.01,WeatherDisplay:10.37,2013-04-15 03:44:00,
2013-04-14 23:46:00,56.7,44.2,29.86,NE,49,3.0,3.0,63,0.01,,SCT,0.01,WeatherDisplay:10.37,2013-04-15 03:46:00,
2013-04-14 23:47:00,56.7,44.7,29.86,NE,49,3.5,3.5,64,0.01,,SCT,0.01,WeatherDisplay:10.37,2013-04-15 03:47:00,
2013-04-14 23:51:00,56.5,44.5,29.86,ENE,68,0.0,0.5,64,0.01,,SCT,0.01,WeatherDisplay:10.37,2013-04-15 03:51:00,
2013-04-14 23:52:00,56.5,44.9,29.86,ENE,69,3.5,3.5,65,0.01,,SCT,0.01,WeatherDisplay:10.37,2013-04-15 03:52:00,
2013-04-14 23:54:00,56.5,45.3,29.86,ENE,68,3.5,3.5,66,0.01,,SCT,0.01,WeatherDisplay:10.37,2013-04-15 03:54:00,
2013-04-14 23:55:00,56.3,45.1,29.85,ENE,68,3.5,3.5,66,0.01,,SCT,0.01,WeatherDisplay:10.37,2013-04-15 03:55:00,
2013-04-14 23:56:00,56.3,45.1,29.85,ENE,68,3.5,3.5,66,0.01,,SCT,0.01,WeatherDisplay:10.37,2013-04-15 03:56:00,